Time,TemperatureF,DewpointF,PressureIn,WindDirection,WindDirectionDegrees,WindSpeedMPH,WindSpeedGustMPH,Humidity,HourlyPrecipIn,Conditions,Clouds,dailyrainin,SoftwareType,DateUTC
2013-04-02 00:00:00,40.1,10.4,29.84,NNW,336,8.0,21.0,29,0.00,,,0.08,VWS V14.01,2013-04-02 04:00:00,
2013-04-02 00:01:00,40.1,10.4,29.84,NW,317,13.0,21.0,29,0.00,,,0.08,VWS V14.01,2013-04-02 04:01:00,
2013-04-02 00:02:00,40.1,10.4,29.84,WNW,293,10.0,21.0,29,0.00,,,0.08,VWS V14.01,2013-04-02 04:02:00,
2013-04-02 00:04:00,40.1,10.4,29.85,NW,317,13.0,17.0,29,0.00,,,0.00,VWS V14.01,2013-04-02 04:04:00,
2013-04-02 00:06:00,40.1,10.4,29.85,NW,321,11.0,19.0,29,0.00,,,0.00,VWS V14.01,2013-04-02 04:06:00,
2013-04-02 00:07:00,40.1,10.4,29.85,NW,320,14.0,19.0,29,0.00,,,0.00,VWS V14.01,2013-04-02 04:07:00,
2013-04-02 00:09:00,39.9,11.0,29.85,NNW,327,11.0,19.0,30,0.00,,,0.00,VWS V14.01,2013-04-02 04:09:00,
2013-04-02 00:11:00,39.9,11.0,29.85,NW,317,7.0,19.0,30,0.00,,,0.00,VWS V14.01,2013-04-02 04:11:00,
2013-04-02 00:12:00,39.8,10.9,29.85,NW,323,12.0,19.0,30,0.00,,,0.00,VWS V14.01,2013-04-02 04:12:00,
2013-04-02 00:17:00,39.6,10.7,29.85,WNW,297,5.0,19.0,30,0.00,,,0.00,VWS V14.01,2013-04-02 04:17:00,
2013-04-02 00:18:00,39.6,10.7,29.85,WNW,299,5.0,19.0,30,0.00,,,0.00,VWS V14.01,2013-04-02 04:18:00,
2013-04-02 00:22:00,39.5,10.6,29.85,NW,312,11.0,20.0,30,0.00,,,0.00,VWS V14.01,2013-04-02 04:22:00,
2013-04-02 00:26:00,39.3,10.5,29.85,NW,312,0.0,20.0,30,0.00,,,0.00,VWS V14.01,2013-04-02 04:26:00,
2013-04-02 00:27:00,39.3,11.2,29.85,WNW,298,9.0,20.0,31,0.00,,,0.00,VWS V14.01,2013-04-02 04:27:00,
2013-04-02 00:30:00,39.2,10.4,29.86,NW,313,5.0,20.0,30,0.00,,,0.00,VWS V14.01,2013-04-02 04:30:00,
2013-04-02 00:31:00,39.2,10.4,29.85,NW,311,10.0,20.0,30,0.00,,,0.00,VWS V14.01,2013-04-02 04:31:00,
2013-04-02 00:32:00,39.2,10.4,29.85,NNW,328,12.0,20.0,30,0.00,,,0.00,VWS V14.01,2013-04-02 04:32:00,
2013-04-02 00:33:00,39.2,10.4,29.86,WNW,284,8.0,20.0,30,0.00,,,0.00,VWS V14.01,2013-04-02 04:33:00,
2013-04-02 00:34:00,39.2,10.4,29.86,NW,312,8.0,8.0,30,0.00,,,0.00,VWS V14.01,2013-04-02 04:34:00,
2013-04-02 00:38:00,39.1,10.3,29.86,North,355,6.0,15.0,30,0.00,,,0.00,VWS V14.01,2013-04-02 04:38:00,
2013-04-02 00:39:00,39.1,10.3,29.86,NW,319,11.0,15.0,30,0.00,,,0.00,VWS V14.01,2013-04-02 04:39:00,
2013-04-02 00:41:00,38.9,10.1,29.86,NW,321,10.0,15.0,30,0.00,,,0.00,VWS V14.01,2013-04-02 04:41:00,
2013-04-02 00:43:00,38.9,10.1,29.86,WNW,302,7.0,15.0,30,0.00,,,0.00,VWS V14.01,2013-04-02 04:43:00,
2013-04-02 00:47:00,38.8,10.8,29.86,North,355,13.0,15.0,31,0.00,,,0.00,VWS V14.01,2013-04-02 04:47:00,
2013-04-02 00:48:00,38.8,10.0,29.87,NW,320,9.0,17.0,30,0.00,,,0.00,VWS V14.01,2013-04-02 04:48:00,
2013-04-02 00:51:00,38.8,10.0,29.87,WNW,300,12.0,17.0,30,0.00,,,0.00,VWS V14.01,2013-04-02 04:51:00,
2013-04-02 00:52:00,38.8,10.8,29.87,NW,311,3.0,17.0,31,0.00,,,0.00,VWS V14.01,2013-04-02 04:52:00,
2013-04-02 00:55:00,38.6,9.9,29.87,NW,319,9.0,17.0,30,0.00,,,0.00,VWS V14.01,2013-04-02 04:55:00,
2013-04-02 00:58:00,38.6,10.6,29.87,NW,317,12.0,17.0,31,0.00,,,0.00,VWS V14.01,2013-04-02 04:58:00,
2013-04-02 00:59:00,38.6,10.6,29.87,NNW,341,7.0,17.0,31,0.00,,,0.00,VWS V14.01,2013-04-02 04:59:00,
2013-04-02 01:00:00,38.5,10.5,29.88,NNW,339,2.0,17.0,31,0.00,,,0.00,VWS V14.01,2013-04-02 05:00:00,
2013-04-02 01:02:00,38.5,10.5,29.87,North,355,6.0,17.0,31,0.00,,,0.00,VWS V14.01,2013-04-02 05:02:00,
2013-04-02 01:04:00,38.5,10.5,29.88,NNW,339,2.0,17.0,31,0.00,,,0.00,VWS V14.01,2013-04-02 05:04:00,
2013-04-02 01:05:00,38.3,11.0,29.88,NNW,343,4.0,11.0,32,0.00,,,0.00,VWS V14.01,2013-04-02 05:05:00,
2013-04-02 01:10:00,38.2,10.9,29.88,WNW,288,1.0,12.0,32,0.00,,,0.00,VWS V14.01,2013-04-02 05:10:00,
2013-04-02 01:12:00,38.2,11.6,29.88,WNW,288,0.0,12.0,33,0.00,,,0.00,VWS V14.01,2013-04-02 05:12:00,
2013-04-02 01:13:00,38.0,11.5,29.88,WNW,288,0.0,12.0,33,0.00,,,0.00,VWS V14.01,2013-04-02 05:13:00,
2013-04-02 01:17:00,37.9,11.4,29.88,NW,322,3.0,12.0,33,0.00,,,0.00,VWS V14.01,2013-04-02 05:17:00,
2013-04-02 01:19:00,37.9,11.4,29.88,WNW,289,2.0,12.0,33,0.00,,,0.00,VWS V14.01,2013-04-02 05:19:00,
2013-04-02 01:22:00,37.8,12.0,29.88,NW,323,3.0,12.0,34,0.00,,,0.00,VWS V14.01,2013-04-02 05:22:00,
2013-04-02 01:24:00,37.6,11.8,29.88,NW,323,0.0,12.0,34,0.00,,,0.00,VWS V14.01,2013-04-02 05:24:00,
2013-04-02 01:26:00,37.6,11.8,29.88,NW,307,5.0,12.0,34,0.00,,,0.00,VWS V14.01,2013-04-02 05:26:00,
2013-04-02 01:28:00,37.5,11.0,29.88,NNW,331,14.0,14.0,33,0.00,,,0.00,VWS V14.01,2013-04-02 05:28:00,
2013-04-02 01:30:00,37.6,11.1,29.88,NNW,344,9.0,16.0,33,0.00,,,0.00,VWS V14.01,2013-04-02 05:30:00,
2013-04-02 01:31:00,37.6,11.1,29.88,NNW,335,3.0,16.0,33,0.00,,,0.00,VWS V14.01,2013-04-02 05:31:00,
2013-04-02 01:33:00,37.6,11.1,29.88,NNW,339,0.0,16.0,33,0.00,,,0.00,VWS V14.01,2013-04-02 05:33:00,
2013-04-02 01:37:00,37.5,11.0,29.88,NW,309,5.0,14.0,33,0.00,,,0.00,VWS V14.01,2013-04-02 05:37:00,
2013-04-02 01:39:00,37.5,11.7,29.88,WNW,293,0.0,14.0,34,0.00,,,0.00,VWS V14.01,2013-04-02 05:39:00,
2013-04-02 01:40:00,37.5,11.7,29.88,WNW,293,0.0,14.0,34,0.00,,,0.00,VWS V14.01,2013-04-02 05:40:00,
2013-04-02 01:41:00,37.3,11.5,29.88,NW,311,2.0,14.0,34,0.00,,,0.00,VWS V14.01,2013-04-02 05:41:00,
2013-04-02 01:42:00,37.3,11.5,29.88,NW,309,3.0,14.0,34,0.00,,,0.00,VWS V14.01,2013-04-02 05:42:00,
2013-04-02 01:46:00,37.2,11.4,29.88,WNW,302,0.0,14.0,34,0.00,,,0.00,VWS V14.01,2013-04-02 05:46:00,
2013-04-02 01:47:00,37.2,12.1,29.88,NW,322,5.0,14.0,35,0.00,,,0.00,VWS V14.01,2013-04-02 05:47:00,
2013-04-02 01:48:00,37.2,12.1,29.89,NW,312,0.0,14.0,35,0.00,,,0.00,VWS V14.01,2013-04-02 05:48:00,
2013-04-02 01:50:00,37.0,11.9,29.89,NW,310,3.0,14.0,35,0.00,,,0.00,VWS V14.01,2013-04-02 05:50:00,
2013-04-02 01:52:00,37.0,11.9,29.89,WNW,292,5.0,14.0,35,0.00,,,0.00,VWS V14.01,2013-04-02 05:52:00,
2013-04-02 01:55:00,37.0,11.9,29.89,West,280,0.0,14.0,35,0.00,,,0.00,VWS V14.01,2013-04-02 05:55:00,
2013-04-02 01:56:00,36.9,11.8,29.89,NW,307,10.0,14.0,35,0.00,,,0.00,VWS V14.01,2013-04-02 05:56:00,
2013-04-02 02:00:00,36.8,12.4,29.89,WNW,298,6.0,14.0,36,0.00,,,0.00,VWS V14.01,2013-04-02 06:00:00,
2013-04-02 02:01:00,36.8,11.7,29.89,NW,316,10.0,14.0,35,0.00,,,0.00,VWS V14.01,2013-04-02 06:01:00,
2013-04-02 02:04:00,36.6,11.6,29.89,WNW,292,2.0,9.0,35,0.00,,,0.00,VWS V14.01,2013-04-02 06:04:00,
2013-04-02 02:07:00,36.6,11.6,29.89,WNW,294,4.0,10.0,35,0.00,,,0.00,VWS V14.01,2013-04-02 06:07:00,
2013-04-02 02:09:00,36.6,12.2,29.89,NW,306,3.0,10.0,36,0.00,,,0.00,VWS V14.01,2013-04-02 06:09:00,
2013-04-02 02:11:00,36.5,12.1,29.89,WNW,292,3.0,10.0,36,0.00,,,0.00,VWS V14.01,2013-04-02 06:11:00,
2013-04-02 02:12:00,36.5,12.1,29.89,NW,308,2.0,10.0,36,0.00,,,0.00,VWS V14.01,2013-04-02 06:12:00,
2013-04-02 02:14:00,36.5,12.1,29.89,NW,311,0.0,10.0,36,0.00,,,0.00,VWS V14.01,2013-04-02 06:14:00,
2013-04-02 02:16:00,36.5,12.1,29.89,WNW,293,6.0,10.0,36,0.00,,,0.00,VWS V14.01,2013-04-02 06:16:00,
2013-04-02 02:18:00,36.3,11.9,29.89,WNW,292,2.0,10.0,36,0.00,,,0.00,VWS V14.01,2013-04-02 06:18:00,
2013-04-02 02:19:00,36.3,11.9,29.88,WNW,293,3.0,10.0,36,0.00,,,0.00,VWS V14.01,2013-04-02 06:19:00,
2013-04-02 02:23:00,36.2,12.4,29.88,WNW,290,4.0,10.0,37,0.00,,,0.00,VWS V14.01,2013-04-02 06:23:00,
2013-04-02 02:24:00,36.2,12.4,29.88,WNW,295,0.0,10.0,37,0.00,,,0.00,VWS V14.01,2013-04-02 06:24:00,
2013-04-02 02:25:00,36.2,12.4,29.88,NW,309,4.0,10.0,37,0.00,,,0.00,VWS V14.01,2013-04-02 06:25:00,
2013-04-02 02:27:00,36.0,12.3,29.88,WNW,282,4.0,10.0,37,0.00,,,0.00,VWS V14.01,2013-04-02 06:27:00,
2013-04-02 02:28:00,36.0,12.3,29.88,WNW,287,6.0,10.0,37,0.00,,,0.00,VWS V14.01,2013-04-02 06:28:00,
2013-04-02 02:30:00,36.0,12.3,29.88,WNW,284,7.0,10.0,37,0.00,,,0.00,VWS V14.01,2013-04-02 06:30:00,
2013-04-02 02:33:00,35.9,12.8,29.88,WNW,288,6.0,10.0,38,0.00,,,0.00,VWS V14.01,2013-04-02 06:33:00,
2013-04-02 02:34:00,35.9,12.8,29.88,WNW,282,4.0,10.0,38,0.00,,,0.00,VWS V14.01,2013-04-02 06:34:00,
2013-04-02 02:36:00,35.9,12.8,29.88,WNW,295,0.0,8.0,38,0.00,,,0.00,VWS V14.01,2013-04-02 06:36:00,
2013-04-02 02:37:00,35.8,12.7,29.88,WNW,283,7.0,8.0,38,0.00,,,0.00,VWS V14.01,2013-04-02 06:37:00,
2013-04-02 02:39:00,35.8,12.7,29.88,WNW,300,9.0,10.0,38,0.00,,,0.00,VWS V14.01,2013-04-02 06:39:00,
2013-04-02 02:41:00,35.8,12.7,29.88,WNW,293,3.0,10.0,38,0.00,,,0.00,VWS V14.01,2013-04-02 06:41:00,
2013-04-02 02:42:00,35.6,12.5,29.88,West,278,4.0,10.0,38,0.00,,,0.00,VWS V14.01,2013-04-02 06:42:00,
2013-04-02 02:43:00,35.6,12.5,29.88,NW,304,9.0,10.0,38,0.00,,,0.00,VWS V14.01,2013-04-02 06:43:00,
2013-04-02 02:44:00,35.6,13.1,29.88,WNW,293,5.0,10.0,39,0.00,,,0.00,VWS V14.01,2013-04-02 06:44:00,
2013-04-02 02:46:00,35.5,13.0,29.88,NW,305,7.0,10.0,39,0.00,,,0.00,VWS V14.01,2013-04-02 06:46:00,
2013-04-02 02:47:00,35.5,13.0,29.88,NW,305,4.0,10.0,39,0.00,,,0.00,VWS V14.01,2013-04-02 06:47:00,
2013-04-02 02:48:00,35.5,13.0,29.88,West,279,4.0,10.0,39,0.00,,,0.00,VWS V14.01,2013-04-02 06:48:00,
2013-04-02 02:52:00,35.3,12.8,29.88,West,281,6.0,10.0,39,0.00,,,0.00,VWS V14.01,2013-04-02 06:52:00,
2013-04-02 02:53:00,35.3,12.8,29.88,WNW,297,2.0,10.0,39,0.00,,,0.00,VWS V14.01,2013-04-02 06:53:00,
2013-04-02 02:54:00,35.3,12.8,29.88,NW,306,4.0,10.0,39,0.00,,,0.00,VWS V14.01,2013-04-02 06:54:00,
2013-04-02 02:55:00,35.2,12.7,29.88,NW,309,3.0,10.0,39,0.00,,,0.00,VWS V14.01,2013-04-02 06:55:00,
2013-04-02 02:57:00,35.2,13.3,29.88,WNW,298,3.0,10.0,40,0.00,,,0.00,VWS V14.01,2013-04-02 06:57:00,
2013-04-02 03:00:00,35.0,13.1,29.88,WNW,294,6.0,10.0,40,0.00,,,0.00,VWS V14.01,2013-04-02 07:00:00,
2013-04-02 03:03:00,35.0,13.1,29.88,WNW,284,1.0,10.0,40,0.00,,,0.00,VWS V14.01,2013-04-02 07:03:00,
2013-04-02 03:04:00,34.9,13.0,29.88,WNW,284,3.0,10.0,40,0.00,,,0.00,VWS V14.01,2013-04-02 07:04:00,
2013-04-02 03:06:00,34.9,13.0,29.88,WNW,292,3.0,7.0,40,0.00,,,0.00,VWS V14.01,2013-04-02 07:06:00,
2013-04-02 03:09:00,34.9,13.0,29.88,WNW,292,4.0,7.0,40,0.00,,,0.00,VWS V14.01,2013-04-02 07:09:00,
2013-04-02 03:11:00,34.7,12.9,29.88,WNW,298,6.0,8.0,40,0.00,,,0.00,VWS V14.01,2013-04-02 07:11:00,
2013-04-02 03:12:00,34.7,12.9,29.88,WNW,299,5.0,8.0,40,0.00,,,0.00,VWS V14.01,2013-04-02 07:12:00,
2013-04-02 03:13:00,34.7,12.9,29.88,WNW,292,6.0,8.0,40,0.00,,,0.00,VWS V14.01,2013-04-02 07:13:00,
2013-04-02 03:16:00,34.7,12.9,29.88,WNW,300,3.0,8.0,40,0.00,,,0.00,VWS V14.01,2013-04-02 07:16:00,
2013-04-02 03:17:00,34.7,13.4,29.88,WNW,299,1.0,8.0,41,0.00,,,0.00,VWS V14.01,2013-04-02 07:17:00,
2013-04-02 03:18:00,34.7,13.4,29.88,WNW,286,2.0,8.0,41,0.00,,,0.00,VWS V14.01,2013-04-02 07:18:00,
2013-04-02 03:22:00,34.6,13.3,29.88,West,279,5.0,8.0,41,0.00,,,0.00,VWS V14.01,2013-04-02 07:22:00,
2013-04-02 03:23:00,34.6,13.3,29.88,WNW,290,3.0,9.0,41,0.00,,,0.00,VWS V14.01,2013-04-02 07:23:00,
2013-04-02 03:25:00,34.6,13.3,29.88,WNW,294,1.0,9.0,41,0.00,,,0.00,VWS V14.01,2013-04-02 07:25:00,
2013-04-02 03:27:00,34.6,13.3,29.88,WNW,286,6.0,9.0,41,0.00,,,0.00,VWS V14.01,2013-04-02 07:27:00,
2013-04-02 03:30:00,34.4,13.1,29.88,WNW,289,3.0,9.0,41,0.00,,,0.00,VWS V14.01,2013-04-02 07:30:00,
2013-04-02 03:32:00,34.6,13.3,29.88,WNW,282,1.0,9.0,41,0.00,,,0.00,VWS V14.01,2013-04-02 07:32:00,
2013-04-02 03:33:00,34.4,13.1,29.88,WNW,289,8.0,9.0,41,0.00,,,0.00,VWS V14.01,2013-04-02 07:33:00,
2013-04-02 03:37:00,34.4,13.1,29.88,WNW,290,4.0,6.0,41,0.00,,,0.00,VWS V14.01,2013-04-02 07:37:00,
2013-04-02 03:38:00,34.4,13.1,29.88,WNW,286,5.0,8.0,41,0.00,,,0.00,VWS V14.01,2013-04-02 07:38:00,
2013-04-02 03:43:00,34.3,13.6,29.88,WNW,282,0.0,8.0,42,0.00,,,0.00,VWS V14.01,2013-04-02 07:43:00,
2013-04-02 03:44:00,34.3,13.6,29.88,WNW,282,4.0,8.0,42,0.00,,,0.00,VWS V14.01,2013-04-02 07:44:00,
2013-04-02 03:45:00,34.3,13.6,29.88,West,273,1.0,8.0,42,0.00,,,0.00,VWS V14.01,2013-04-02 07:45:00,
2013-04-02 03:50:00,34.0,13.9,29.88,West,273,0.0,8.0,43,0.00,,,0.00,VWS V14.01,2013-04-02 07:50:00,
2013-04-02 03:53:00,33.8,13.7,29.88,West,273,1.0,8.0,43,0.00,,,0.00,VWS V14.01,2013-04-02 07:53:00,
2013-04-02 03:55:00,33.8,13.7,29.88,West,273,0.0,8.0,43,0.00,,,0.00,VWS V14.01,2013-04-02 07:55:00,
2013-04-02 03:56:00,33.8,13.7,29.88,West,273,0.0,8.0,43,0.00,,,0.00,VWS V14.01,2013-04-02 07:56:00,
2013-04-02 04:00:00,33.5,13.9,29.88,West,273,0.0,8.0,44,0.00,,,0.00,VWS V14.01,2013-04-02 08:00:00,
2013-04-02 04:02:00,33.5,13.9,29.88,West,273,0.0,8.0,44,0.00,,,0.00,VWS V14.01,2013-04-02 08:02:00,
2013-04-02 04:04:00,33.5,13.9,29.88,West,273,0.0,8.0,44,0.00,,,0.00,VWS V14.01,2013-04-02 08:04:00,
2013-04-02 04:09:00,33.2,13.7,29.88,West,273,2.0,5.0,44,0.00,,,0.00,VWS V14.01,2013-04-02 08:09:00,
2013-04-02 04:11:00,33.2,14.2,29.88,West,273,1.0,5.0,45,0.00,,,0.00,VWS V14.01,2013-04-02 08:11:00,
2013-04-02 04:12:00,33.1,13.6,29.88,West,271,0.0,5.0,44,0.00,,,0.00,VWS V14.01,2013-04-02 08:12:00,
2013-04-02 04:16:00,33.1,14.1,29.88,West,271,0.0,5.0,45,0.00,,,0.00,VWS V14.01,2013-04-02 08:16:00,
2013-04-02 04:18:00,32.9,13.9,29.88,West,271,0.0,5.0,45,0.00,,,0.00,VWS V14.01,2013-04-02 08:18:00,
2013-04-02 04:21:00,32.9,13.9,29.88,West,271,0.0,5.0,45,0.00,,,0.00,VWS V14.01,2013-04-02 08:21:00,
2013-04-02 04:24:00,32.8,14.3,29.88,West,271,0.0,5.0,46,0.00,,,0.00,VWS V14.01,2013-04-02 08:24:00,
2013-04-02 04:26:00,32.8,14.3,29.88,West,271,0.0,5.0,46,0.00,,,0.00,VWS V14.01,2013-04-02 08:26:00,
2013-04-02 04:27:00,32.8,14.3,29.88,West,271,1.0,5.0,46,0.00,,,0.00,VWS V14.01,2013-04-02 08:27:00,
2013-04-02 04:28:00,32.8,14.3,29.88,West,271,0.0,5.0,46,0.00,,,0.00,VWS V14.01,2013-04-02 08:28:00,
2013-04-02 04:30:00,32.7,14.7,29.89,West,271,0.0,5.0,47,0.00,,,0.00,VWS V14.01,2013-04-02 08:30:00,
2013-04-02 04:31:00,32.7,14.7,29.88,West,271,0.0,5.0,47,0.00,,,0.00,VWS V14.01,2013-04-02 08:31:00,
2013-04-02 04:32:00,32.7,14.7,29.88,West,271,0.0,5.0,47,0.00,,,0.00,VWS V14.01,2013-04-02 08:32:00,
2013-04-02 04:34:00,32.7,14.7,29.89,West,271,0.0,5.0,47,0.00,,,0.00,VWS V14.01,2013-04-02 08:34:00,
2013-04-02 04:36:00,32.5,14.5,29.89,West,271,2.0,3.0,47,0.00,,,0.00,VWS V14.01,2013-04-02 08:36:00,
2013-04-02 04:39:00,32.4,14.4,29.89,West,271,0.0,3.0,47,0.00,,,0.00,VWS V14.01,2013-04-02 08:39:00,
2013-04-02 04:40:00,32.4,14.4,29.89,West,271,0.0,3.0,47,0.00,,,0.00,VWS V14.01,2013-04-02 08:40:00,
2013-04-02 04:46:00,32.2,14.2,29.89,West,271,0.0,3.0,47,0.00,,,0.00,VWS V14.01,2013-04-02 08:46:00,
2013-04-02 04:47:00,32.2,14.2,29.89,West,271,4.0,4.0,47,0.00,,,0.00,VWS V14.01,2013-04-02 08:47:00,
2013-04-02 04:51:00,32.2,14.7,29.90,West,271,0.0,4.0,48,0.00,,,0.00,VWS V14.01,2013-04-02 08:51:00,
2013-04-02 04:53:00,32.2,14.7,29.90,West,271,0.0,5.0,48,0.00,,,0.00,VWS V14.01,2013-04-02 08:53:00,
2013-04-02 04:56:00,32.1,14.6,29.90,West,271,4.0,5.0,48,0.00,,,0.00,VWS V14.01,2013-04-02 08:56:00,
2013-04-02 05:00:00,32.1,14.6,29.90,West,271,2.0,5.0,48,0.00,,,0.00,VWS V14.01,2013-04-02 09:00:00,
2013-04-02 05:01:00,32.1,14.6,29.90,West,271,3.0,5.0,48,0.00,,,0.00,VWS V14.01,2013-04-02 09:01:00,
2013-04-02 05:03:00,32.2,14.7,29.90,West,271,3.0,5.0,48,0.00,,,0.00,VWS V14.01,2013-04-02 09:03:00,
2013-04-02 05:05:00,32.2,14.7,29.90,West,271,0.0,3.0,48,0.00,,,0.00,VWS V14.01,2013-04-02 09:05:00,
2013-04-02 05:07:00,32.2,14.7,29.90,West,271,0.0,5.0,48,0.00,,,0.00,VWS V14.01,2013-04-02 09:07:00,
2013-04-02 05:08:00,32.2,14.7,29.90,West,271,5.0,5.0,48,0.00,,,0.00,VWS V14.01,2013-04-02 09:08:00,
2013-04-02 05:09:00,32.2,14.7,29.90,West,272,2.0,5.0,48,0.00,,,0.00,VWS V14.01,2013-04-02 09:09:00,
2013-04-02 05:12:00,32.2,14.7,29.90,West,267,0.0,6.0,48,0.00,,,0.00,VWS V14.01,2013-04-02 09:12:00,
2013-04-02 05:13:00,32.2,14.7,29.90,West,267,2.0,6.0,48,0.00,,,0.00,VWS V14.01,2013-04-02 09:13:00,
2013-04-02 05:14:00,32.2,14.7,29.90,West,268,3.0,6.0,48,0.00,,,0.00,VWS V14.01,2013-04-02 09:14:00,
2013-04-02 05:15:00,32.2,14.7,29.90,West,268,0.0,6.0,48,0.00,,,0.00,VWS V14.01,2013-04-02 09:15:00,
2013-04-02 05:18:00,32.2,14.7,29.90,West,268,2.0,6.0,48,0.00,,,0.00,VWS V14.01,2013-04-02 09:18:00,
2013-04-02 05:22:00,32.2,14.7,29.90,West,265,1.0,6.0,48,0.00,,,0.00,VWS V14.01,2013-04-02 09:22:00,
2013-04-02 05:25:00,32.2,14.7,29.90,West,265,0.0,6.0,48,0.00,,,0.00,VWS V14.01,2013-04-02 09:25:00,
2013-04-02 05:26:00,32.2,14.7,29.90,West,265,3.0,6.0,48,0.00,,,0.00,VWS V14.01,2013-04-02 09:26:00,
2013-04-02 05:27:00,32.2,14.7,29.90,West,265,0.0,6.0,48,0.00,,,0.00,VWS V14.01,2013-04-02 09:27:00,
2013-04-02 05:30:00,32.4,14.9,29.91,West,265,0.0,7.0,48,0.00,,,0.00,VWS V14.01,2013-04-02 09:30:00,
2013-04-02 05:31:00,32.2,14.7,29.90,West,265,1.0,7.0,48,0.00,,,0.00,VWS V14.01,2013-04-02 09:31:00,
2013-04-02 05:34:00,32.4,14.9,29.91,West,265,4.0,5.0,48,0.00,,,0.00,VWS V14.01,2013-04-02 09:34:00,
2013-04-02 05:35:00,32.4,14.9,29.91,West,265,2.0,5.0,48,0.00,,,0.00,VWS V14.01,2013-04-02 09:35:00,
2013-04-02 05:37:00,32.4,14.9,29.91,West,265,4.0,6.0,48,0.00,,,0.00,VWS V14.01,2013-04-02 09:37:00,
2013-04-02 05:38:00,32.4,14.9,29.91,West,265,2.0,6.0,48,0.00,,,0.00,VWS V14.01,2013-04-02 09:38:00,
2013-04-02 05:41:00,32.4,14.9,29.91,West,265,0.0,6.0,48,0.00,,,0.00,VWS V14.01,2013-04-02 09:41:00,
2013-04-02 05:42:00,32.4,14.9,29.91,West,265,2.0,6.0,48,0.00,,,0.00,VWS V14.01,2013-04-02 09:42:00,
2013-04-02 05:48:00,32.4,14.9,29.91,West,265,0.0,7.0,48,0.00,,,0.00,VWS V14.01,2013-04-02 09:48:00,
2013-04-02 05:49:00,32.4,14.9,29.92,West,265,7.0,7.0,48,0.00,,,0.00,VWS V14.01,2013-04-02 09:49:00,
2013-04-02 05:53:00,32.4,14.9,29.92,West,267,4.0,7.0,48,0.00,,,0.00,VWS V14.01,2013-04-02 09:53:00,
2013-04-02 05:54:00,32.4,14.9,29.92,West,263,7.0,8.0,48,0.00,,,0.00,VWS V14.01,2013-04-02 09:54:00,
2013-04-02 05:55:00,32.4,14.9,29.92,West,271,3.0,10.0,48,0.00,,,0.00,VWS V14.01,2013-04-02 09:55:00,
2013-04-02 05:58:00,32.4,14.4,29.92,West,273,6.0,10.0,47,0.00,,,0.00,VWS V14.01,2013-04-02 09:58:00,
2013-04-02 06:00:00,32.5,14.5,29.92,West,275,5.0,10.0,47,0.00,,,0.00,VWS V14.01,2013-04-02 10:00:00,
2013-04-02 06:02:00,32.5,14.5,29.92,West,275,4.0,10.0,47,0.00,,,0.00,VWS V14.01,2013-04-02 10:02:00,
2013-04-02 06:03:00,32.5,14.5,29.92,West,275,1.0,10.0,47,0.00,,,0.00,VWS V14.01,2013-04-02 10:03:00,
2013-04-02 06:04:00,32.7,14.2,29.92,West,277,9.0,10.0,46,0.00,,,0.00,VWS V14.01,2013-04-02 10:04:00,
2013-04-02 06:05:00,32.7,14.2,29.92,West,265,7.0,9.0,46,0.00,,,0.00,VWS V14.01,2013-04-02 10:05:00,
2013-04-02 06:10:00,32.7,14.2,29.92,West,268,0.0,9.0,46,0.00,,,0.00,VWS V14.01,2013-04-02 10:10:00,
2013-04-02 06:11:00,32.5,14.0,29.92,West,275,7.0,10.0,46,0.00,,,0.00,VWS V14.01,2013-04-02 10:11:00,
2013-04-02 06:15:00,32.5,14.0,29.92,West,275,4.0,11.0,46,0.00,,,0.00,VWS V14.01,2013-04-02 10:15:00,
2013-04-02 06:17:00,32.5,14.0,29.92,WNW,292,0.0,11.0,46,0.00,,,0.00,VWS V14.01,2013-04-02 10:17:00,
2013-04-02 06:20:00,32.5,13.5,29.93,West,279,1.0,11.0,45,0.00,,,0.00,VWS V14.01,2013-04-02 10:20:00,
2013-04-02 06:21:00,32.5,13.5,29.93,West,278,6.0,11.0,45,0.00,,,0.00,VWS V14.01,2013-04-02 10:21:00,
2013-04-02 06:24:00,32.5,13.5,29.93,West,275,2.0,11.0,45,0.00,,,0.00,VWS V14.01,2013-04-02 10:24:00,
2013-04-02 06:30:00,32.5,14.0,29.93,WNW,289,4.0,11.0,46,0.00,,,0.00,VWS V14.01,2013-04-02 10:30:00,
2013-04-02 06:34:00,32.4,13.9,29.93,West,278,0.0,11.0,46,0.00,,,0.00,VWS V14.01,2013-04-02 10:34:00,
2013-04-02 06:36:00,32.4,13.9,29.93,West,279,0.0,8.0,46,0.00,,,0.00,VWS V14.01,2013-04-02 10:36:00,
2013-04-02 06:37:00,32.4,13.9,29.93,West,279,5.0,8.0,46,0.00,,,0.00,VWS V14.01,2013-04-02 10:37:00,
2013-04-02 06:39:00,32.4,13.9,29.93,West,279,0.0,8.0,46,0.00,,,0.00,VWS V14.01,2013-04-02 10:39:00,
2013-04-02 06:42:00,32.2,14.2,29.93,West,280,3.0,8.0,47,0.00,,,0.00,VWS V14.01,2013-04-02 10:42:00,
2013-04-02 06:43:00,32.2,13.8,29.93,West,281,1.0,8.0,46,0.00,,,0.00,VWS V14.01,2013-04-02 10:43:00,
2013-04-02 06:44:00,32.2,14.2,29.93,West,280,0.0,8.0,47,0.00,,,0.00,VWS V14.01,2013-04-02 10:44:00,
2013-04-02 06:46:00,32.2,14.2,29.93,West,280,1.0,8.0,47,0.00,,,0.00,VWS V14.01,2013-04-02 10:46:00,
2013-04-02 06:48:00,32.2,14.2,29.93,West,281,0.0,8.0,47,0.00,,,0.00,VWS V14.01,2013-04-02 10:48:00,
2013-04-02 06:49:00,32.2,14.2,29.93,West,281,0.0,8.0,47,0.00,,,0.00,VWS V14.01,2013-04-02 10:49:00,
2013-04-02 06:54:00,32.1,14.2,29.93,West,281,0.0,8.0,47,0.00,,,0.00,VWS V14.01,2013-04-02 10:54:00,
2013-04-02 06:55:00,32.1,14.2,29.93,West,281,0.0,8.0,47,0.00,,,0.00,VWS V14.01,2013-04-02 10:55:00,
2013-04-02 06:56:00,32.1,14.2,29.93,West,281,0.0,8.0,47,0.00,,,0.00,VWS V14.01,2013-04-02 10:56:00,
2013-04-02 06:59:00,32.1,14.2,29.93,West,281,0.0,8.0,47,0.00,,,0.00,VWS V14.01,2013-04-02 10:59:00,
2013-04-02 07:00:00,32.1,14.2,29.93,West,281,0.0,8.0,47,0.00,,,0.00,VWS V14.01,2013-04-02 11:00:00,
2013-04-02 07:02:00,31.9,14.0,29.93,West,281,0.0,8.0,47,0.00,,,0.00,VWS V14.01,2013-04-02 11:02:00,
2013-04-02 07:03:00,31.9,14.0,29.94,West,281,0.0,8.0,47,0.00,,,0.00,VWS V14.01,2013-04-02 11:03:00,
2013-04-02 07:06:00,31.9,14.4,29.94,West,281,0.0,3.0,48,0.00,,,0.00,VWS V14.01,2013-04-02 11:06:00,
2013-04-02 07:07:00,31.9,14.4,29.94,West,281,2.0,3.0,48,0.00,,,0.00,VWS V14.01,2013-04-02 11:07:00,
2013-04-02 07:09:00,31.9,14.4,29.94,West,281,0.0,3.0,48,0.00,,,0.00,VWS V14.01,2013-04-02 11:09:00,
2013-04-02 07:12:00,31.9,14.4,29.94,West,281,0.0,3.0,48,0.00,,,0.00,VWS V14.01,2013-04-02 11:12:00,
2013-04-02 07:13:00,31.9,14.4,29.94,West,281,0.0,4.0,48,0.00,,,0.00,VWS V14.01,2013-04-02 11:13:00,
2013-04-02 07:15:00,32.1,14.2,29.94,West,281,0.0,4.0,47,0.00,,,0.00,VWS V14.01,2013-04-02 11:15:00,
2013-04-02 07:16:00,32.1,14.2,29.94,West,281,6.0,6.0,47,0.00,,,0.00,VWS V14.01,2013-04-02 11:16:00,
2013-04-02 07:17:00,32.1,14.2,29.94,West,280,4.0,7.0,47,0.00,,,0.00,VWS V14.01,2013-04-02 11:17:00,
2013-04-02 07:20:00,32.4,14.4,29.95,West,280,3.0,7.0,47,0.00,,,0.00,VWS V14.01,2013-04-02 11:20:00,
2013-04-02 07:21:00,32.4,13.9,29.95,West,280,0.0,7.0,46,0.00,,,0.00,VWS V14.01,2013-04-02 11:21:00,
2013-04-02 07:22:00,32.5,14.0,29.95,West,280,0.0,7.0,46,0.00,,,0.00,VWS V14.01,2013-04-02 11:22:00,
2013-04-02 07:23:00,32.5,14.5,29.95,West,280,5.0,7.0,47,0.00,,,0.00,VWS V14.01,2013-04-02 11:23:00,
2013-04-02 07:28:00,32.9,13.9,29.95,WNW,299,4.0,9.0,45,0.00,,,0.00,VWS V14.01,2013-04-02 11:28:00,
2013-04-02 07:29:00,32.9,13.9,29.95,WNW,296,0.0,9.0,45,0.00,,,0.00,VWS V14.01,2013-04-02 11:29:00,
2013-04-02 07:30:00,33.1,14.1,29.95,NW,305,7.0,9.0,45,0.00,,,0.00,VWS V14.01,2013-04-02 11:30:00,
2013-04-02 07:33:00,33.4,14.4,29.96,WNW,282,4.0,10.0,45,0.00,,,0.00,VWS V14.01,2013-04-02 11:33:00,
2013-04-02 07:34:00,33.4,14.4,29.96,NW,319,0.0,4.0,45,0.00,,,0.00,VWS V14.01,2013-04-02 11:34:00,
2013-04-02 07:35:00,33.5,13.9,29.96,WNW,284,4.0,4.0,44,0.00,,,0.00,VWS V14.01,2013-04-02 11:35:00,
2013-04-02 07:39:00,33.8,14.2,29.96,WNW,300,0.0,7.0,44,0.00,,,0.00,VWS V14.01,2013-04-02 11:39:00,
2013-04-02 07:43:00,34.1,14.0,29.96,NNW,328,1.0,10.0,43,0.00,,,0.00,VWS V14.01,2013-04-02 11:43:00,
2013-04-02 07:44:00,34.1,14.0,29.96,West,277,4.0,10.0,43,0.00,,,0.00,VWS V14.01,2013-04-02 11:44:00,
2013-04-02 07:45:00,34.1,14.0,29.96,West,277,0.0,10.0,43,0.00,,,0.00,VWS V14.01,2013-04-02 11:45:00,
2013-04-02 07:47:00,34.3,14.1,29.96,WNW,294,8.0,10.0,43,0.00,,,0.00,VWS V14.01,2013-04-02 11:47:00,
2013-04-02 07:51:00,34.6,14.4,29.96,WNW,285,0.0,10.0,43,0.00,,,0.00,VWS V14.01,2013-04-02 11:51:00,
2013-04-02 07:52:00,34.6,13.9,29.96,WNW,288,3.0,10.0,42,0.00,,,0.00,VWS V14.01,2013-04-02 11:52:00,
2013-04-02 07:53:00,34.7,14.0,29.96,WNW,288,0.0,10.0,42,0.00,,,0.00,VWS V14.01,2013-04-02 11:53:00,
2013-04-02 07:58:00,35.0,13.7,29.96,WNW,290,3.0,10.0,41,0.00,,,0.00,VWS V14.01,2013-04-02 11:58:00,
2013-04-02 07:59:00,35.0,13.7,29.96,WNW,284,0.0,10.0,41,0.00,,,0.00,VWS V14.01,2013-04-02 11:59:00,
2013-04-02 08:00:00,35.3,13.4,29.96,WNW,292,3.0,10.0,40,0.00,,,0.00,VWS V14.01,2013-04-02 12:00:00,
2013-04-02 08:02:00,35.3,14.5,29.96,West,278,6.0,10.0,42,0.00,,,0.00,VWS V14.01,2013-04-02 12:02:00,
2013-04-02 08:04:00,35.3,13.4,29.96,WNW,292,3.0,10.0,40,0.00,,,0.00,VWS V14.01,2013-04-02 12:04:00,
2013-04-02 08:05:00,35.5,13.6,29.96,WNW,283,3.0,7.0,40,0.00,,,0.00,VWS V14.01,2013-04-02 12:05:00,
2013-04-02 08:09:00,35.6,13.7,29.96,WNW,288,3.0,8.0,40,0.00,,,0.00,VWS V14.01,2013-04-02 12:09:00,
2013-04-02 08:10:00,35.8,13.9,29.96,WNW,287,0.0,8.0,40,0.00,,,0.00,VWS V14.01,2013-04-02 12:10:00,
2013-04-02 08:11:00,35.8,13.9,29.96,WNW,298,9.0,10.0,40,0.00,,,0.00,VWS V14.01,2013-04-02 12:11:00,
2013-04-02 08:12:00,35.9,13.9,29.96,NW,306,3.0,10.0,40,0.00,,,0.00,VWS V14.01,2013-04-02 12:12:00,
2013-04-02 08:15:00,36.0,13.5,29.96,West,281,2.0,10.0,39,0.00,,,0.00,VWS V14.01,2013-04-02 12:15:00,
2013-04-02 08:17:00,36.5,13.9,29.96,West,273,4.0,10.0,39,0.00,,,0.00,VWS V14.01,2013-04-02 12:17:00,
2013-04-02 08:18:00,36.6,14.0,29.96,West,279,4.0,10.0,39,0.00,,,0.00,VWS V14.01,2013-04-02 12:18:00,
2013-04-02 08:19:00,36.8,14.2,29.96,West,281,3.0,10.0,39,0.00,,,0.00,VWS V14.01,2013-04-02 12:19:00,
2013-04-02 08:22:00,36.9,13.1,29.96,NW,316,9.0,10.0,37,0.00,,,0.00,VWS V14.01,2013-04-02 12:22:00,
2013-04-02 08:23:00,36.9,13.1,29.96,WNW,288,2.0,10.0,37,0.00,,,0.00,VWS V14.01,2013-04-02 12:23:00,
2013-04-02 08:25:00,37.0,13.2,29.96,West,272,6.0,12.0,37,0.00,,,0.00,VWS V14.01,2013-04-02 12:25:00,
2013-04-02 08:28:00,37.3,14.0,29.96,WNW,289,10.0,13.0,38,0.00,,,0.00,VWS V14.01,2013-04-02 12:28:00,
2013-04-02 08:30:00,37.5,13.0,29.96,West,275,7.0,13.0,36,0.00,,,0.00,VWS V14.01,2013-04-02 12:30:00,
2013-04-02 08:31:00,37.5,13.6,29.96,WNW,303,3.0,13.0,37,0.00,,,0.00,VWS V14.01,2013-04-02 12:31:00,
2013-04-02 08:34:00,37.6,13.1,29.97,NW,309,9.0,11.0,36,0.00,,,0.00,VWS V14.01,2013-04-02 12:34:00,
2013-04-02 08:35:00,37.5,13.6,29.97,West,276,5.0,16.0,37,0.00,,,0.00,VWS V14.01,2013-04-02 12:35:00,
2013-04-02 08:36:00,37.5,13.0,29.97,WNW,295,5.0,16.0,36,0.00,,,0.00,VWS V14.01,2013-04-02 12:36:00,
2013-04-02 08:41:00,37.8,13.3,29.97,WNW,284,8.0,16.0,36,0.00,,,0.00,VWS V14.01,2013-04-02 12:41:00,
2013-04-02 08:45:00,37.8,13.3,29.97,WSW,257,0.0,16.0,36,0.00,,,0.00,VWS V14.01,2013-04-02 12:45:00,
2013-04-02 08:46:00,37.9,13.4,29.97,West,268,9.0,16.0,36,0.00,,,0.00,VWS V14.01,2013-04-02 12:46:00,
2013-04-02 08:50:00,38.2,13.6,29.97,West,272,1.0,16.0,36,0.00,,,0.00,VWS V14.01,2013-04-02 12:50:00,
2013-04-02 08:52:00,38.3,13.7,29.97,NW,314,11.0,16.0,36,0.00,,,0.00,VWS V14.01,2013-04-02 12:52:00,
2013-04-02 08:54:00,38.3,13.7,29.97,West,279,2.0,16.0,36,0.00,,,0.00,VWS V14.01,2013-04-02 12:54:00,
2013-04-02 08:55:00,38.3,13.7,29.97,WSW,242,6.0,16.0,36,0.00,,,0.00,VWS V14.01,2013-04-02 12:55:00,
2013-04-02 08:57:00,38.3,13.1,29.97,WNW,290,11.0,16.0,35,0.00,,,0.00,VWS V14.01,2013-04-02 12:57:00,
2013-04-02 09:00:00,38.5,13.9,29.97,WNW,286,10.0,16.0,36,0.00,,,0.00,VWS V14.01,2013-04-02 13:00:00,
2013-04-02 09:01:00,38.3,13.7,29.97,WNW,286,9.0,16.0,36,0.00,,,0.00,VWS V14.01,2013-04-02 13:01:00,
2013-04-02 09:03:00,38.5,13.9,29.97,WNW,286,14.0,16.0,36,0.00,,,0.00,VWS V14.01,2013-04-02 13:03:00,
2013-04-02 09:06:00,38.2,13.0,29.97,West,272,13.0,16.0,35,0.00,,,0.00,VWS V14.01,2013-04-02 13:06:00,
2013-04-02 09:07:00,38.2,13.0,29.97,NW,305,12.0,16.0,35,0.00,,,0.00,VWS V14.01,2013-04-02 13:07:00,
2013-04-02 09:09:00,38.3,14.3,29.97,NW,309,9.0,16.0,37,0.00,,,0.00,VWS V14.01,2013-04-02 13:09:00,
2013-04-02 09:12:00,38.6,14.6,29.97,WNW,292,5.0,16.0,37,0.00,,,0.00,VWS V14.01,2013-04-02 13:12:00,
2013-04-02 09:14:00,38.9,14.2,29.97,WNW,288,6.0,18.0,36,0.00,,,0.00,VWS V14.01,2013-04-02 13:14:00,
2013-04-02 09:15:00,38.9,13.6,29.97,West,265,13.0,18.0,35,0.00,,,0.00,VWS V14.01,2013-04-02 13:15:00,
2013-04-02 09:17:00,39.1,13.8,29.97,WNW,289,14.0,18.0,35,0.00,,,0.00,VWS V14.01,2013-04-02 13:17:00,
2013-04-02 09:21:00,39.1,13.8,29.97,West,278,9.0,18.0,35,0.00,,,0.00,VWS V14.01,2013-04-02 13:21:00,
2013-04-02 09:22:00,39.1,13.1,29.97,WNW,282,13.0,18.0,34,0.00,,,0.00,VWS V14.01,2013-04-02 13:22:00,
2013-04-02 09:24:00,39.2,13.9,29.97,WNW,291,3.0,18.0,35,0.00,,,0.00,VWS V14.01,2013-04-02 13:24:00,
2013-04-02 09:26:00,39.2,13.2,29.97,WNW,300,7.0,18.0,34,0.00,,,0.00,VWS V14.01,2013-04-02 13:26:00,
2013-04-02 09:27:00,39.3,13.9,29.97,West,275,2.0,18.0,35,0.00,,,0.00,VWS V14.01,2013-04-02 13:27:00,
2013-04-02 09:30:00,39.6,14.2,29.97,WSW,239,0.0,18.0,35,0.00,,,0.00,VWS V14.01,2013-04-02 13:30:00,
2013-04-02 09:31:00,39.8,15.0,29.97,WNW,294,5.0,18.0,36,0.00,,,0.00,VWS V14.01,2013-04-02 13:31:00,
2013-04-02 09:32:00,39.9,14.5,29.97,WNW,292,12.0,18.0,35,0.00,,,0.00,VWS V14.01,2013-04-02 13:32:00,
2013-04-02 09:34:00,39.9,13.1,29.96,WNW,298,8.0,12.0,33,0.00,,,0.00,VWS V14.01,2013-04-02 13:34:00,
2013-04-02 09:35:00,40.1,14.0,29.96,WNW,286,7.0,16.0,34,0.00,,,0.00,VWS V14.01,2013-04-02 13:35:00,
2013-04-02 09:37:00,40.1,13.3,29.96,NW,307,4.0,16.0,33,0.00,,,0.00,VWS V14.01,2013-04-02 13:37:00,
2013-04-02 09:38:00,39.9,13.1,29.96,WNW,290,11.0,16.0,33,0.00,,,0.00,VWS V14.01,2013-04-02 13:38:00,
2013-04-02 09:40:00,40.1,14.0,29.96,WNW,300,13.0,16.0,34,0.00,,,0.00,VWS V14.01,2013-04-02 13:40:00,
2013-04-02 09:41:00,40.1,14.0,29.96,WNW,294,13.0,16.0,34,0.00,,,0.00,VWS V14.01,2013-04-02 13:41:00,
2013-04-02 09:43:00,40.2,13.4,29.96,West,279,3.0,16.0,33,0.00,,,0.00,VWS V14.01,2013-04-02 13:43:00,
2013-04-02 09:45:00,40.5,14.4,29.96,WNW,282,4.0,18.0,34,0.00,,,0.00,VWS V14.01,2013-04-02 13:45:00,
2013-04-02 09:47:00,40.8,13.9,29.96,West,279,5.0,18.0,33,0.00,,,0.00,VWS V14.01,2013-04-02 13:47:00,
2013-04-02 09:49:00,40.6,13.1,29.96,NW,317,9.0,18.0,32,0.00,,,0.00,VWS V14.01,2013-04-02 13:49:00,
2013-04-02 09:50:00,40.5,13.0,29.96,WNW,300,6.0,18.0,32,0.00,,,0.00,VWS V14.01,2013-04-02 13:50:00,
2013-04-02 09:55:00,40.2,12.7,29.96,West,277,2.0,19.0,32,0.00,,,0.00,VWS V14.01,2013-04-02 13:55:00,
2013-04-02 09:56:00,40.2,13.4,29.96,West,277,10.0,20.0,33,0.00,,,0.00,VWS V14.01,2013-04-02 13:56:00,
2013-04-02 10:00:00,39.9,13.8,29.96,NW,313,11.0,24.0,34,0.00,,,0.00,VWS V14.01,2013-04-02 14:00:00,
2013-04-02 10:01:00,39.8,13.7,29.96,West,279,11.0,24.0,34,0.00,,,0.00,VWS V14.01,2013-04-02 14:01:00,
2013-04-02 10:03:00,39.8,13.1,29.96,West,281,10.0,24.0,33,0.00,,,0.00,VWS V14.01,2013-04-02 14:03:00,
2013-04-02 10:05:00,40.1,14.7,29.96,NW,324,4.0,12.0,35,0.00,,,0.00,VWS V14.01,2013-04-02 14:05:00,
2013-04-02 10:07:00,40.5,14.4,29.96,WSW,237,12.0,17.0,34,0.00,,,0.00,VWS V14.01,2013-04-02 14:07:00,
2013-04-02 10:08:00,40.6,13.8,29.96,NNW,329,5.0,17.0,33,0.00,,,0.00,VWS V14.01,2013-04-02 14:08:00,
2013-04-02 10:09:00,40.5,13.7,29.96,WNW,294,10.0,17.0,33,0.00,,,0.00,VWS V14.01,2013-04-02 14:09:00,
2013-04-02 10:11:00,40.6,13.8,29.96,WNW,296,11.0,17.0,33,0.00,,,0.00,VWS V14.01,2013-04-02 14:11:00,
2013-04-02 10:12:00,40.6,13.1,29.96,WNW,301,9.0,18.0,32,0.00,,,0.00,VWS V14.01,2013-04-02 14:12:00,
2013-04-02 10:14:00,40.6,13.8,29.96,WSW,250,9.0,18.0,33,0.00,,,0.00,VWS V14.01,2013-04-02 14:14:00,
2013-04-02 10:17:00,41.1,13.5,29.96,West,266,7.0,23.0,32,0.00,,,0.00,VWS V14.01,2013-04-02 14:17:00,
2013-04-02 10:18:00,40.8,11.8,29.96,West,261,15.0,23.0,30,0.00,,,0.00,VWS V14.01,2013-04-02 14:18:00,
2013-04-02 10:19:00,40.8,13.2,29.96,West,273,9.0,23.0,32,0.00,,,0.00,VWS V14.01,2013-04-02 14:19:00,
2013-04-02 10:24:00,40.1,12.6,29.96,West,279,13.0,27.0,32,0.00,,,0.00,VWS V14.01,2013-04-02 14:24:00,
2013-04-02 10:25:00,39.9,12.4,29.96,NW,317,21.0,27.0,32,0.00,,,0.00,VWS V14.01,2013-04-02 14:25:00,
2013-04-02 10:26:00,39.9,12.4,29.96,WNW,283,20.0,27.0,32,0.00,,,0.00,VWS V14.01,2013-04-02 14:26:00,
2013-04-02 10:28:00,39.9,12.4,29.96,NW,316,6.0,27.0,32,0.00,,,0.00,VWS V14.01,2013-04-02 14:28:00,
2013-04-02 10:29:00,39.8,11.6,29.96,WNW,290,13.0,27.0,31,0.00,,,0.00,VWS V14.01,2013-04-02 14:29:00,
2013-04-02 10:30:00,40.5,13.0,29.96,NW,315,16.0,27.0,32,0.00,,,0.00,VWS V14.01,2013-04-02 14:30:00,
2013-04-02 10:33:00,40.5,13.0,29.96,WNW,288,10.0,27.0,32,0.00,,,0.00,VWS V14.01,2013-04-02 14:33:00,
2013-04-02 10:34:00,40.5,13.0,29.96,NW,315,16.0,27.0,32,0.00,,,0.00,VWS V14.01,2013-04-02 14:34:00,
2013-04-02 10:40:00,40.6,13.1,29.96,NNW,346,7.0,23.0,32,0.00,,,0.00,VWS V14.01,2013-04-02 14:40:00,
2013-04-02 10:41:00,40.6,13.1,29.96,West,265,14.0,23.0,32,0.00,,,0.00,VWS V14.01,2013-04-02 14:41:00,
2013-04-02 10:42:00,40.5,12.3,29.96,West,263,10.0,23.0,31,0.00,,,0.00,VWS V14.01,2013-04-02 14:42:00,
2013-04-02 10:43:00,40.3,13.5,29.96,NW,309,9.0,23.0,33,0.00,,,0.00,VWS V14.01,2013-04-02 14:43:00,
2013-04-02 10:48:00,41.1,14.2,29.96,West,281,13.0,23.0,33,0.00,,,0.00,VWS V14.01,2013-04-02 14:48:00,
2013-04-02 10:52:00,41.3,13.7,29.96,WNW,293,12.0,23.0,32,0.00,,,0.00,VWS V14.01,2013-04-02 14:52:00,
2013-04-02 10:54:00,41.3,13.0,29.96,WNW,295,13.0,23.0,31,0.00,,,0.00,VWS V14.01,2013-04-02 14:54:00,
2013-04-02 10:55:00,41.3,13.0,29.96,WNW,294,3.0,23.0,31,0.00,,,0.00,VWS V14.01,2013-04-02 14:55:00,
2013-04-02 10:56:00,41.5,13.9,29.96,WNW,295,7.0,23.0,32,0.00,,,0.00,VWS V14.01,2013-04-02 14:56:00,
2013-04-02 10:57:00,41.8,14.1,29.96,NW,315,7.0,23.0,32,0.00,,,0.00,VWS V14.01,2013-04-02 14:57:00,
2013-04-02 11:00:00,41.5,13.9,29.96,WNW,296,3.0,24.0,32,0.00,,,0.00,VWS V14.01,2013-04-02 15:00:00,
2013-04-02 11:01:00,41.5,13.9,29.96,West,281,12.0,24.0,32,0.00,,,0.00,VWS V14.01,2013-04-02 15:01:00,
2013-04-02 11:03:00,41.2,13.6,29.96,NNW,329,13.0,24.0,32,0.00,,,0.00,VWS V14.01,2013-04-02 15:03:00,
2013-04-02 11:04:00,41.1,13.5,29.96,NW,314,6.0,24.0,32,0.00,,,0.00,VWS V14.01,2013-04-02 15:04:00,
2013-04-02 11:05:00,41.2,14.3,29.96,NW,304,8.0,13.0,33,0.00,,,0.00,VWS V14.01,2013-04-02 15:05:00,
2013-04-02 11:07:00,41.2,12.9,29.96,West,279,9.0,19.0,31,0.00,,,0.00,VWS V14.01,2013-04-02 15:07:00,
2013-04-02 11:10:00,41.8,14.1,29.96,NW,305,10.0,19.0,32,0.00,,,0.00,VWS V14.01,2013-04-02 15:10:00,
2013-04-02 11:12:00,41.9,13.5,29.96,WNW,297,16.0,23.0,31,0.00,,,0.00,VWS V14.01,2013-04-02 15:12:00,
2013-04-02 11:13:00,41.9,12.7,29.96,WSW,250,8.0,23.0,30,0.00,,,0.00,VWS V14.01,2013-04-02 15:13:00,
2013-04-02 11:15:00,41.9,13.5,29.96,West,277,9.0,23.0,31,0.00,,,0.00,VWS V14.01,2013-04-02 15:15:00,
2013-04-02 11:16:00,41.9,12.7,29.96,WNW,300,6.0,23.0,30,0.00,,,0.00,VWS V14.01,2013-04-02 15:16:00,
2013-04-02 11:19:00,41.6,13.2,29.96,NNW,348,6.0,23.0,31,0.00,,,0.00,VWS V14.01,2013-04-02 15:19:00,
2013-04-02 11:20:00,41.6,12.5,29.96,WNW,300,21.0,23.0,30,0.00,,,0.00,VWS V14.01,2013-04-02 15:20:00,
2013-04-02 11:21:00,41.3,11.5,29.96,WNW,301,13.0,23.0,29,0.00,,,0.00,VWS V14.01,2013-04-02 15:21:00,
2013-04-02 11:26:00,41.6,13.2,29.96,WNW,282,15.0,24.0,31,0.00,,,0.00,VWS V14.01,2013-04-02 15:26:00,
2013-04-02 11:27:00,41.8,13.4,29.96,West,275,5.0,24.0,31,0.00,,,0.00,VWS V14.01,2013-04-02 15:27:00,
2013-04-02 11:29:00,41.9,14.2,29.96,WNW,297,8.0,24.0,32,0.00,,,0.00,VWS V14.01,2013-04-02 15:29:00,
2013-04-02 11:30:00,41.8,12.6,29.96,NW,304,2.0,24.0,30,0.00,,,0.00,VWS V14.01,2013-04-02 15:30:00,
2013-04-02 11:32:00,42.1,12.1,29.96,West,268,12.0,24.0,29,0.00,,,0.00,VWS V14.01,2013-04-02 15:32:00,
2013-04-02 11:36:00,41.9,12.0,29.96,NW,313,10.0,18.0,29,0.00,,,0.00,VWS V14.01,2013-04-02 15:36:00,
2013-04-02 11:37:00,41.8,11.9,29.96,NNW,327,6.0,18.0,29,0.00,,,0.00,VWS V14.01,2013-04-02 15:37:00,
2013-04-02 11:39:00,41.9,12.0,29.96,West,269,12.0,21.0,29,0.00,,,0.00,VWS V14.01,2013-04-02 15:39:00,
2013-04-02 11:43:00,41.5,11.6,29.96,West,265,5.0,25.0,29,0.00,,,0.00,VWS V14.01,2013-04-02 15:43:00,
2013-04-02 11:45:00,41.8,12.7,29.96,WNW,288,5.0,25.0,30,0.00,,,0.00,VWS V14.01,2013-04-02 15:45:00,
2013-04-02 11:50:00,42.3,13.8,29.95,NW,314,20.0,25.0,31,0.00,,,0.00,VWS V14.01,2013-04-02 15:50:00,
2013-04-02 11:51:00,42.2,12.2,29.95,NW,311,13.0,25.0,29,0.00,,,0.00,VWS V14.01,2013-04-02 15:51:00,
2013-04-02 11:52:00,42.3,13.8,29.95,WNW,297,5.0,25.0,31,0.00,,,0.00,VWS V14.01,2013-04-02 15:52:00,
2013-04-02 11:57:00,42.3,11.5,29.95,NW,309,10.0,25.0,28,0.00,,,0.00,VWS V14.01,2013-04-02 15:57:00,
2013-04-02 11:58:00,42.2,12.2,29.95,ESE,109,18.0,25.0,29,0.00,,,0.00,VWS V14.01,2013-04-02 15:58:00,
2013-04-02 12:00:00,42.2,13.8,29.95,NW,313,17.0,25.0,31,0.00,,,0.00,VWS V14.01,2013-04-02 16:00:00,
2013-04-02 12:03:00,42.1,12.1,29.95,NW,313,4.0,25.0,29,0.00,,,0.00,VWS V14.01,2013-04-02 16:03:00,
2013-04-02 12:05:00,42.1,12.1,29.95,WNW,301,5.0,17.0,29,0.00,,,0.00,VWS V14.01,2013-04-02 16:05:00,
2013-04-02 12:09:00,42.5,14.0,29.95,West,274,8.0,17.0,31,0.00,,,0.00,VWS V14.01,2013-04-02 16:09:00,
2013-04-02 12:11:00,42.6,12.6,29.95,WSW,258,5.0,21.0,29,0.00,,,0.00,VWS V14.01,2013-04-02 16:11:00,
2013-04-02 12:13:00,42.6,12.6,29.95,West,274,6.0,25.0,29,0.00,,,0.00,VWS V14.01,2013-04-02 16:13:00,
2013-04-02 12:15:00,42.6,13.4,29.95,WNW,286,16.0,25.0,30,0.00,,,0.00,VWS V14.01,2013-04-02 16:15:00,
2013-04-02 12:16:00,42.5,12.5,29.95,West,276,3.0,25.0,29,0.00,,,0.00,VWS V14.01,2013-04-02 16:16:00,
2013-04-02 12:20:00,42.2,12.2,29.95,NW,309,15.0,25.0,29,0.00,,,0.00,VWS V14.01,2013-04-02 16:20:00,
2013-04-02 12:21:00,42.1,11.4,29.95,West,270,11.0,25.0,28,0.00,,,0.00,VWS V14.01,2013-04-02 16:21:00,
2013-04-02 12:22:00,42.1,11.4,29.95,WSW,246,13.0,25.0,28,0.00,,,0.00,VWS V14.01,2013-04-02 16:22:00,
2013-04-02 12:26:00,43.2,12.3,29.95,West,263,14.0,25.0,28,0.00,,,0.00,VWS V14.01,2013-04-02 16:26:00,
2013-04-02 12:29:00,43.3,11.6,29.95,WNW,288,22.0,25.0,27,0.00,,,0.00,VWS V14.01,2013-04-02 16:29:00,
2013-04-02 12:30:00,43.2,12.3,29.94,WNW,287,5.0,25.0,28,0.00,,,0.00,VWS V14.01,2013-04-02 16:30:00,
2013-04-02 12:31:00,43.1,12.2,29.95,WNW,288,6.0,25.0,28,0.00,,,0.00,VWS V14.01,2013-04-02 16:31:00,
2013-04-02 12:32:00,43.2,13.1,29.95,West,267,2.0,25.0,29,0.00,,,0.00,VWS V14.01,2013-04-02 16:32:00,
2013-04-02 12:37:00,43.5,11.8,29.94,NW,321,14.0,19.0,27,0.00,,,0.00,VWS V14.01,2013-04-02 16:37:00,
2013-04-02 12:39:00,43.6,13.5,29.94,West,260,9.0,19.0,29,0.00,,,0.00,VWS V14.01,2013-04-02 16:39:00,
2013-04-02 12:41:00,43.8,12.8,29.94,WNW,294,7.0,19.0,28,0.00,,,0.00,VWS V14.01,2013-04-02 16:41:00,
2013-04-02 12:42:00,43.8,12.8,29.94,WNW,292,13.0,19.0,28,0.00,,,0.00,VWS V14.01,2013-04-02 16:42:00,
2013-04-02 12:45:00,44.6,12.7,29.94,WNW,289,12.0,24.0,27,0.00,,,0.00,VWS V14.01,2013-04-02 16:45:00,
2013-04-02 12:46:00,44.6,13.5,29.94,West,279,15.0,24.0,28,0.00,,,0.00,VWS V14.01,2013-04-02 16:46:00,
2013-04-02 12:50:00,43.9,12.1,29.94,WNW,297,8.0,25.0,27,0.00,,,0.00,VWS V14.01,2013-04-02 16:50:00,
2013-04-02 12:51:00,43.8,12.8,29.94,West,267,12.0,25.0,28,0.00,,,0.00,VWS V14.01,2013-04-02 16:51:00,
2013-04-02 12:52:00,43.9,12.1,29.94,West,271,13.0,25.0,27,0.00,,,0.00,VWS V14.01,2013-04-02 16:52:00,
2013-04-02 12:55:00,43.9,12.9,29.94,WNW,294,17.0,25.0,28,0.00,,,0.00,VWS V14.01,2013-04-02 16:55:00,
2013-04-02 12:56:00,44.1,13.1,29.94,WNW,289,9.0,25.0,28,0.00,,,0.00,VWS V14.01,2013-04-02 16:56:00,
2013-04-02 12:58:00,44.1,12.3,29.94,WNW,287,16.0,25.0,27,0.00,,,0.00,VWS V14.01,2013-04-02 16:58:00,
2013-04-02 13:00:00,44.6,12.7,29.93,WNW,294,6.0,25.0,27,0.00,,,0.00,VWS V14.01,2013-04-02 17:00:00,
2013-04-02 13:01:00,44.3,13.3,29.94,West,267,9.0,25.0,28,0.00,,,0.00,VWS V14.01,2013-04-02 17:01:00,
2013-04-02 13:04:00,44.6,12.7,29.93,WNW,294,6.0,25.0,27,0.00,,,0.00,VWS V14.01,2013-04-02 17:04:00,
2013-04-02 13:07:00,44.8,12.0,29.93,WNW,286,22.0,25.0,26,0.00,,,0.00,VWS V14.01,2013-04-02 17:07:00,
2013-04-02 13:09:00,44.5,11.8,29.93,WSW,256,13.0,25.0,26,0.00,,,0.00,VWS V14.01,2013-04-02 17:09:00,
2013-04-02 13:12:00,44.1,11.4,29.93,NW,307,9.0,25.0,26,0.00,,,0.00,VWS V14.01,2013-04-02 17:12:00,
2013-04-02 13:14:00,43.6,10.1,29.93,WNW,298,9.0,25.0,25,0.00,,,0.00,VWS V14.01,2013-04-02 17:14:00,
2013-04-02 13:17:00,43.5,11.8,29.93,West,263,13.0,25.0,27,0.00,,,0.00,VWS V14.01,2013-04-02 17:17:00,
2013-04-02 13:19:00,43.8,12.0,29.93,West,277,14.0,25.0,27,0.00,,,0.00,VWS V14.01,2013-04-02 17:19:00,
2013-04-02 13:23:00,43.9,12.9,29.93,WSW,250,6.0,25.0,28,0.00,,,0.00,VWS V14.01,2013-04-02 17:23:00,
2013-04-02 13:24:00,44.2,13.2,29.93,WNW,287,17.0,25.0,28,0.00,,,0.00,VWS V14.01,2013-04-02 17:24:00,
2013-04-02 13:25:00,44.2,12.4,29.93,WSW,249,11.0,25.0,27,0.00,,,0.00,VWS V14.01,2013-04-02 17:25:00,
2013-04-02 13:28:00,44.3,12.4,29.93,WNW,283,9.0,25.0,27,0.00,,,0.00,VWS V14.01,2013-04-02 17:28:00,
2013-04-02 13:29:00,44.5,12.6,29.93,NW,309,7.0,25.0,27,0.00,,,0.00,VWS V14.01,2013-04-02 17:29:00,
2013-04-02 13:30:00,44.6,11.9,29.93,WNW,284,12.0,25.0,26,0.00,,,0.00,VWS V14.01,2013-04-02 17:30:00,
2013-04-02 13:33:00,44.6,11.9,29.93,WNW,285,6.0,25.0,26,0.00,,,0.00,VWS V14.01,2013-04-02 17:33:00,
2013-04-02 13:34:00,44.6,11.9,29.93,WNW,284,12.0,25.0,26,0.00,,,0.00,VWS V14.01,2013-04-02 17:34:00,
2013-04-02 13:35:00,44.8,12.0,29.93,West,276,15.0,19.0,26,0.00,,,0.00,VWS V14.01,2013-04-02 17:35:00,
2013-04-02 13:40:00,44.9,12.1,29.93,WNW,284,14.0,21.0,26,0.00,,,0.00,VWS V14.01,2013-04-02 17:40:00,
2013-04-02 13:42:00,45.4,13.4,29.93,West,279,9.0,21.0,27,0.00,,,0.00,VWS V14.01,2013-04-02 17:42:00,
2013-04-02 13:46:00,45.2,12.4,29.93,NW,325,7.0,23.0,26,0.00,,,0.00,VWS V14.01,2013-04-02 17:46:00,
2013-04-02 13:47:00,45.2,12.4,29.93,WNW,298,20.0,23.0,26,0.00,,,0.00,VWS V14.01,2013-04-02 17:47:00,
2013-04-02 13:50:00,44.9,12.1,29.93,NW,306,13.0,23.0,26,0.00,,,0.00,VWS V14.01,2013-04-02 17:50:00,
2013-04-02 13:53:00,44.9,12.1,29.93,WNW,288,14.0,24.0,26,0.00,,,0.00,VWS V14.01,2013-04-02 17:53:00,
2013-04-02 13:58:00,44.5,11.8,29.93,WNW,298,8.0,24.0,26,0.00,,,0.00,VWS V14.01,2013-04-02 17:58:00,
2013-04-02 14:00:00,44.9,11.2,29.92,NW,321,10.0,27.0,25,0.00,,,0.00,VWS V14.01,2013-04-02 18:00:00,
2013-04-02 14:03:00,44.8,12.0,29.92,NNW,337,5.0,27.0,26,0.00,,,0.00,VWS V14.01,2013-04-02 18:03:00,
2013-04-02 14:04:00,44.9,11.2,29.92,NW,321,10.0,27.0,25,0.00,,,0.00,VWS V14.01,2013-04-02 18:04:00,
2013-04-02 14:09:00,44.5,11.8,29.92,NW,311,18.0,24.0,26,0.00,,,0.00,VWS V14.01,2013-04-02 18:09:00,
2013-04-02 14:11:00,44.6,11.9,29.92,WNW,295,16.0,26.0,26,0.00,,,0.00,VWS V14.01,2013-04-02 18:11:00,
2013-04-02 14:12:00,44.6,11.0,29.92,WSW,258,5.0,26.0,25,0.00,,,0.00,VWS V14.01,2013-04-02 18:12:00,
2013-04-02 14:18:00,44.9,13.0,29.92,West,266,11.0,27.0,27,0.00,,,0.00,VWS V14.01,2013-04-02 18:18:00,
2013-04-02 14:22:00,45.1,11.4,29.92,West,271,18.0,28.0,25,0.00,,,0.00,VWS V14.01,2013-04-02 18:22:00,
2013-04-02 14:24:00,44.8,11.1,29.92,WNW,292,16.0,28.0,25,0.00,,,0.00,VWS V14.01,2013-04-02 18:24:00,
2013-04-02 14:27:00,44.6,11.9,29.92,West,265,16.0,28.0,26,0.00,,,0.00,VWS V14.01,2013-04-02 18:27:00,
2013-04-02 14:29:00,44.5,12.6,29.92,SW,229,2.0,28.0,27,0.00,,,0.00,VWS V14.01,2013-04-02 18:29:00,
2013-04-02 14:30:00,44.9,13.8,29.92,WNW,288,6.0,28.0,28,0.00,,,0.00,VWS V14.01,2013-04-02 18:30:00,
2013-04-02 14:34:00,44.9,13.8,29.92,WNW,288,6.0,28.0,28,0.00,,,0.00,VWS V14.01,2013-04-02 18:34:00,
2013-04-02 14:35:00,45.2,12.4,29.92,WSW,250,10.0,19.0,26,0.00,,,0.00,VWS V14.01,2013-04-02 18:35:00,
2013-04-02 14:39:00,45.1,11.4,29.92,West,270,24.0,24.0,25,0.00,,,0.00,VWS V14.01,2013-04-02 18:39:00,
2013-04-02 14:40:00,44.9,11.2,29.92,WSW,252,14.0,24.0,25,0.00,,,0.00,VWS V14.01,2013-04-02 18:40:00,
2013-04-02 14:44:00,44.9,12.1,29.92,NW,314,8.0,24.0,26,0.00,,,0.00,VWS V14.01,2013-04-02 18:44:00,
2013-04-02 14:45:00,45.1,11.4,29.92,NW,311,10.0,24.0,25,0.00,,,0.00,VWS V14.01,2013-04-02 18:45:00,
2013-04-02 14:49:00,45.4,11.6,29.92,WNW,293,15.0,24.0,25,0.00,,,0.00,VWS V14.01,2013-04-02 18:49:00,
2013-04-02 14:50:00,45.4,12.5,29.92,West,268,9.0,24.0,26,0.00,,,0.00,VWS V14.01,2013-04-02 18:50:00,
2013-04-02 14:51:00,45.7,12.8,29.92,West,261,12.0,24.0,26,0.00,,,0.00,VWS V14.01,2013-04-02 18:51:00,
2013-04-02 14:56:00,45.4,12.5,29.92,NW,314,14.0,24.0,26,0.00,,,0.00,VWS V14.01,2013-04-02 18:56:00,
2013-04-02 14:57:00,45.2,11.5,29.92,West,267,10.0,24.0,25,0.00,,,0.00,VWS V14.01,2013-04-02 18:57:00,
2013-04-02 14:59:00,45.4,12.5,29.92,WNW,284,7.0,24.0,26,0.00,,,0.00,VWS V14.01,2013-04-02 18:59:00,
2013-04-02 15:00:00,45.5,12.6,29.92,WNW,285,7.0,24.0,26,0.00,,,0.00,VWS V14.01,2013-04-02 19:00:00,
2013-04-02 15:01:00,45.4,13.4,29.92,West,261,2.0,24.0,27,0.00,,,0.00,VWS V14.01,2013-04-02 19:01:00,
2013-04-02 15:04:00,45.7,12.8,29.92,WNW,295,16.0,19.0,26,0.00,,,0.00,VWS V14.01,2013-04-02 19:04:00,
2013-04-02 15:08:00,45.7,12.8,29.92,WNW,286,14.0,19.0,26,0.00,,,0.00,VWS V14.01,2013-04-02 19:08:00,
2013-04-02 15:10:00,45.7,12.8,29.92,WNW,286,6.0,19.0,26,0.00,,,0.00,VWS V14.01,2013-04-02 19:10:00,
2013-04-02 15:14:00,45.8,12.9,29.92,WSW,258,14.0,20.0,26,0.00,,,0.00,VWS V14.01,2013-04-02 19:14:00,
2013-04-02 15:16:00,45.5,11.7,29.92,WNW,294,6.0,23.0,25,0.00,,,0.00,VWS V14.01,2013-04-02 19:16:00,
2013-04-02 15:17:00,45.5,11.7,29.92,WNW,295,7.0,23.0,25,0.00,,,0.00,VWS V14.01,2013-04-02 19:17:00,
2013-04-02 15:21:00,45.4,10.7,29.91,West,276,10.0,30.0,24,0.00,,,0.00,VWS V14.01,2013-04-02 19:21:00,
2013-04-02 15:23:00,45.4,10.7,29.91,WNW,301,14.0,30.0,24,0.00,,,0.00,VWS V14.01,2013-04-02 19:23:00,
2013-04-02 15:27:00,45.2,11.5,29.91,North,5,14.0,30.0,25,0.00,,,0.00,VWS V14.01,2013-04-02 19:27:00,
2013-04-02 15:28:00,45.1,10.5,29.91,West,270,10.0,30.0,24,0.00,,,0.00,VWS V14.01,2013-04-02 19:28:00,
2013-04-02 15:30:00,45.2,10.6,29.91,WNW,287,17.0,30.0,24,0.00,,,0.00,VWS V14.01,2013-04-02 19:30:00,
2013-04-02 15:32:00,45.2,12.4,29.91,West,280,17.0,30.0,26,0.00,,,0.00,VWS V14.01,2013-04-02 19:32:00,
2013-04-02 15:33:00,45.4,11.6,29.91,NW,307,10.0,30.0,25,0.00,,,0.00,VWS V14.01,2013-04-02 19:33:00,
2013-04-02 15:34:00,45.2,10.6,29.91,WNW,287,17.0,30.0,24,0.00,,,0.00,VWS V14.01,2013-04-02 19:34:00,
2013-04-02 15:38:00,45.1,11.4,29.91,West,280,10.0,23.0,25,0.00,,,0.00,VWS V14.01,2013-04-02 19:38:00,
2013-04-02 15:40:00,45.1,10.5,29.91,WNW,288,5.0,23.0,24,0.00,,,0.00,VWS V14.01,2013-04-02 19:40:00,
2013-04-02 15:41:00,45.1,11.4,29.91,WNW,286,7.0,23.0,25,0.00,,,0.00,VWS V14.01,2013-04-02 19:41:00,
2013-04-02 15:46:00,45.2,11.5,29.91,West,271,8.0,23.0,25,0.00,,,0.00,VWS V14.01,2013-04-02 19:46:00,
2013-04-02 15:48:00,45.4,10.7,29.91,WNW,301,13.0,24.0,24,0.00,,,0.00,VWS V14.01,2013-04-02 19:48:00,
2013-04-02 15:50:00,45.4,10.7,29.91,WNW,288,12.0,25.0,24,0.00,,,0.00,VWS V14.01,2013-04-02 19:50:00,
2013-04-02 15:52:00,45.2,10.6,29.91,NW,306,18.0,25.0,24,0.00,,,0.00,VWS V14.01,2013-04-02 19:52:00,
2013-04-02 15:54:00,45.2,10.6,29.91,WNW,288,8.0,25.0,24,0.00,,,0.00,VWS V14.01,2013-04-02 19:54:00,
2013-04-02 15:55:00,45.2,10.6,29.91,West,273,8.0,25.0,24,0.00,,,0.00,VWS V14.01,2013-04-02 19:55:00,
2013-04-02 15:59:00,46.0,12.2,29.91,West,276,15.0,25.0,25,0.00,,,0.00,VWS V14.01,2013-04-02 19:59:00,
2013-04-02 16:00:00,46.2,11.4,29.91,WNW,284,15.0,25.0,24,0.00,,,0.00,VWS V14.01,2013-04-02 20:00:00,
2013-04-02 16:03:00,46.2,11.4,29.91,West,279,13.0,25.0,24,0.00,,,0.00,VWS V14.01,2013-04-02 20:03:00,
2013-04-02 16:04:00,46.2,11.4,29.91,WNW,286,14.0,25.0,24,0.00,,,0.00,VWS V14.01,2013-04-02 20:04:00,
2013-04-02 16:07:00,46.1,11.3,29.91,NW,325,13.0,21.0,24,0.00,,,0.00,VWS V14.01,2013-04-02 20:07:00,
2013-04-02 16:11:00,44.8,10.2,29.91,WNW,285,17.0,23.0,24,0.00,,,0.00,VWS V14.01,2013-04-02 20:11:00,
2013-04-02 16:12:00,44.8,10.2,29.91,WNW,300,12.0,23.0,24,0.00,,,0.00,VWS V14.01,2013-04-02 20:12:00,
2013-04-02 16:13:00,44.8,11.1,29.91,WNW,298,4.0,23.0,25,0.00,,,0.00,VWS V14.01,2013-04-02 20:13:00,
2013-04-02 16:17:00,45.4,10.7,29.91,West,273,7.0,23.0,24,0.00,,,0.00,VWS V14.01,2013-04-02 20:17:00,
2013-04-02 16:22:00,46.1,11.3,29.90,West,266,11.0,23.0,24,0.00,,,0.00,VWS V14.01,2013-04-02 20:22:00,
2013-04-02 16:23:00,46.1,10.4,29.90,West,277,7.0,23.0,23,0.00,,,0.00,VWS V14.01,2013-04-02 20:23:00,
2013-04-02 16:28:00,46.2,11.4,29.90,WNW,284,11.0,23.0,24,0.00,,,0.00,VWS V14.01,2013-04-02 20:28:00,
2013-04-02 16:30:00,45.8,10.1,29.91,West,264,15.0,23.0,23,0.00,,,0.00,VWS V14.01,2013-04-02 20:30:00,
2013-04-02 16:31:00,46.2,11.4,29.90,West,268,6.0,23.0,24,0.00,,,0.00,VWS V14.01,2013-04-02 20:31:00,
2013-04-02 16:33:00,46.0,10.3,29.91,WNW,293,20.0,23.0,23,0.00,,,0.00,VWS V14.01,2013-04-02 20:33:00,
2013-04-02 16:35:00,45.7,11.0,29.91,West,276,19.0,27.0,24,0.00,,,0.00,VWS V14.01,2013-04-02 20:35:00,
2013-04-02 16:39:00,44.9,10.3,29.91,West,260,14.0,27.0,24,0.00,,,0.00,VWS V14.01,2013-04-02 20:39:00,
2013-04-02 16:41:00,44.8,10.2,29.91,WSW,254,7.0,27.0,24,0.00,,,0.00,VWS V14.01,2013-04-02 20:41:00,
2013-04-02 16:44:00,44.8,10.2,29.91,West,272,14.0,27.0,24,0.00,,,0.00,VWS V14.01,2013-04-02 20:44:00,
2013-04-02 16:46:00,44.9,10.3,29.91,WNW,287,13.0,27.0,24,0.00,,,0.00,VWS V14.01,2013-04-02 20:46:00,
2013-04-02 16:47:00,45.1,10.5,29.91,West,270,12.0,27.0,24,0.00,,,0.00,VWS V14.01,2013-04-02 20:47:00,
2013-04-02 16:53:00,45.7,11.0,29.91,WNW,296,10.0,27.0,24,0.00,,,0.00,VWS V14.01,2013-04-02 20:53:00,
2013-04-02 16:54:00,45.8,11.1,29.91,West,273,9.0,27.0,24,0.00,,,0.00,VWS V14.01,2013-04-02 20:54:00,
2013-04-02 16:58:00,45.5,10.8,29.91,West,277,11.0,27.0,24,0.00,,,0.00,VWS V14.01,2013-04-02 20:58:00,
2013-04-02 16:59:00,45.5,10.8,29.91,WNW,296,16.0,27.0,24,0.00,,,0.00,VWS V14.01,2013-04-02 20:59:00,
2013-04-02 17:00:00,45.8,10.1,29.91,NW,311,8.0,27.0,23,0.00,,,0.00,VWS V14.01,2013-04-02 21:00:00,
2013-04-02 17:01:00,45.7,10.0,29.91,WNW,297,11.0,27.0,23,0.00,,,0.00,VWS V14.01,2013-04-02 21:01:00,
2013-04-02 17:04:00,45.8,11.1,29.91,WNW,292,18.0,20.0,24,0.00,,,0.00,VWS V14.01,2013-04-02 21:04:00,
2013-04-02 17:05:00,45.7,10.0,29.91,West,277,9.0,20.0,23,0.00,,,0.00,VWS V14.01,2013-04-02 21:05:00,
2013-04-02 17:06:00,45.8,11.1,29.91,West,281,20.0,20.0,24,0.00,,,0.00,VWS V14.01,2013-04-02 21:06:00,
2013-04-02 17:10:00,45.5,9.9,29.91,West,275,1.0,24.0,23,0.00,,,0.00,VWS V14.01,2013-04-02 21:10:00,
2013-04-02 17:11:00,45.5,9.9,29.91,West,271,9.0,24.0,23,0.00,,,0.00,VWS V14.01,2013-04-02 21:11:00,
2013-04-02 17:13:00,45.5,9.9,29.91,West,259,19.0,24.0,23,0.00,,,0.00,VWS V14.01,2013-04-02 21:13:00,
2013-04-02 17:15:00,45.4,10.7,29.91,West,276,13.0,24.0,24,0.00,,,0.00,VWS V14.01,2013-04-02 21:15:00,
2013-04-02 17:20:00,45.4,10.7,29.92,WNW,288,14.0,24.0,24,0.00,,,0.00,VWS V14.01,2013-04-02 21:20:00,
2013-04-02 17:21:00,45.4,10.7,29.92,WNW,291,19.0,24.0,24,0.00,,,0.00,VWS V14.01,2013-04-02 21:21:00,
2013-04-02 17:24:00,45.5,10.8,29.92,West,267,10.0,24.0,24,0.00,,,0.00,VWS V14.01,2013-04-02 21:24:00,
2013-04-02 17:25:00,45.7,11.0,29.92,WNW,299,8.0,24.0,24,0.00,,,0.00,VWS V14.01,2013-04-02 21:25:00,
2013-04-02 17:31:00,45.2,9.6,29.92,West,281,6.0,26.0,23,0.00,,,0.00,VWS V14.01,2013-04-02 21:31:00,
2013-04-02 17:34:00,45.2,10.6,29.93,NW,318,19.0,26.0,24,0.00,,,0.00,VWS V14.01,2013-04-02 21:34:00,
2013-04-02 17:39:00,45.1,9.5,29.93,West,271,16.0,25.0,23,0.00,,,0.00,VWS V14.01,2013-04-02 21:39:00,
2013-04-02 17:40:00,45.1,10.5,29.93,West,270,14.0,25.0,24,0.00,,,0.00,VWS V14.01,2013-04-02 21:40:00,
2013-04-02 17:43:00,45.1,10.5,29.93,West,261,11.0,25.0,24,0.00,,,0.00,VWS V14.01,2013-04-02 21:43:00,
2013-04-02 17:45:00,45.1,10.5,29.93,West,259,7.0,25.0,24,0.00,,,0.00,VWS V14.01,2013-04-02 21:45:00,
2013-04-02 17:48:00,45.2,10.6,29.93,WNW,293,5.0,25.0,24,0.00,,,0.00,VWS V14.01,2013-04-02 21:48:00,
2013-04-02 17:54:00,44.9,9.4,29.93,WNW,296,16.0,17.0,23,0.00,,,0.00,VWS V14.01,2013-04-02 21:54:00,
2013-04-02 17:58:00,44.5,10.0,29.93,West,262,24.0,24.0,24,0.00,,,0.00,VWS V14.01,2013-04-02 21:58:00,
2013-04-02 18:00:00,44.3,9.8,29.93,WNW,285,13.0,24.0,24,0.00,,,0.00,VWS V14.01,2013-04-02 22:00:00,
2013-04-02 18:03:00,44.1,10.5,29.94,WNW,284,16.0,24.0,25,0.00,,,0.00,VWS V14.01,2013-04-02 22:03:00,
2013-04-02 18:04:00,44.1,9.6,29.94,WNW,301,11.0,13.0,24,0.00,,,0.00,VWS V14.01,2013-04-02 22:04:00,
2013-04-02 18:05:00,44.1,9.6,29.94,NW,309,3.0,13.0,24,0.00,,,0.00,VWS V14.01,2013-04-02 22:05:00,
2013-04-02 18:09:00,43.9,10.4,29.94,WNW,303,10.0,18.0,25,0.00,,,0.00,VWS V14.01,2013-04-02 22:09:00,
2013-04-02 18:11:00,43.9,10.4,29.94,WNW,286,16.0,18.0,25,0.00,,,0.00,VWS V14.01,2013-04-02 22:11:00,
2013-04-02 18:12:00,43.9,10.4,29.94,West,281,11.0,19.0,25,0.00,,,0.00,VWS V14.01,2013-04-02 22:12:00,
2013-04-02 18:18:00,43.9,10.4,29.94,WNW,285,13.0,20.0,25,0.00,,,0.00,VWS V14.01,2013-04-02 22:18:00,
2013-04-02 18:19:00,43.9,10.4,29.94,NW,307,22.0,22.0,25,0.00,,,0.00,VWS V14.01,2013-04-02 22:19:00,
2013-04-02 18:24:00,43.8,9.4,29.94,WNW,298,17.0,22.0,24,0.00,,,0.00,VWS V14.01,2013-04-02 22:24:00,
2013-04-02 18:26:00,43.9,10.4,29.94,WNW,298,17.0,22.0,25,0.00,,,0.00,VWS V14.01,2013-04-02 22:26:00,
2013-04-02 18:28:00,43.8,10.3,29.94,West,276,8.0,22.0,25,0.00,,,0.00,VWS V14.01,2013-04-02 22:28:00,
2013-04-02 18:31:00,43.6,10.1,29.94,West,276,9.0,22.0,25,0.00,,,0.00,VWS V14.01,2013-04-02 22:31:00,
2013-04-02 18:33:00,43.6,10.1,29.95,WNW,283,12.0,22.0,25,0.00,,,0.00,VWS V14.01,2013-04-02 22:33:00,
2013-04-02 18:34:00,43.6,10.1,29.95,WNW,286,13.0,22.0,25,0.00,,,0.00,VWS V14.01,2013-04-02 22:34:00,
2013-04-02 18:39:00,43.3,9.9,29.95,WNW,303,12.0,15.0,25,0.00,,,0.00,VWS V14.01,2013-04-02 22:39:00,
2013-04-02 18:41:00,43.3,10.7,29.95,West,267,8.0,16.0,26,0.00,,,0.00,VWS V14.01,2013-04-02 22:41:00,
2013-04-02 18:43:00,43.3,9.9,29.95,WNW,294,11.0,30.0,25,0.00,,,0.00,VWS V14.01,2013-04-02 22:43:00,
2013-04-02 18:49:00,43.2,9.8,29.95,WSW,257,7.0,30.0,25,0.00,,,0.00,VWS V14.01,2013-04-02 22:49:00,
2013-04-02 18:50:00,43.2,9.8,29.95,WSW,248,6.0,30.0,25,0.00,,,0.00,VWS V14.01,2013-04-02 22:50:00,
2013-04-02 18:55:00,43.1,9.7,29.95,West,280,11.0,30.0,25,0.00,,,0.00,VWS V14.01,2013-04-02 22:55:00,
2013-04-02 18:58:00,43.1,9.7,29.95,West,273,7.0,30.0,25,0.00,,,0.00,VWS V14.01,2013-04-02 22:58:00,
2013-04-02 19:00:00,42.9,9.5,29.95,WNW,288,21.0,30.0,25,0.00,,,0.00,VWS V14.01,2013-04-02 23:00:00,
2013-04-02 19:04:00,42.9,9.5,29.95,WNW,298,5.0,30.0,25,0.00,,,0.00,VWS V14.01,2013-04-02 23:04:00,
2013-04-02 19:05:00,42.8,9.4,29.95,WNW,282,14.0,20.0,25,0.00,,,0.00,VWS V14.01,2013-04-02 23:05:00,
2013-04-02 19:07:00,42.8,9.4,29.95,WNW,284,4.0,20.0,25,0.00,,,0.00,VWS V14.01,2013-04-02 23:07:00,
2013-04-02 19:10:00,42.8,9.4,29.95,NW,305,10.0,20.0,25,0.00,,,0.00,VWS V14.01,2013-04-02 23:10:00,
2013-04-02 19:12:00,42.6,9.3,29.95,WNW,288,7.0,20.0,25,0.00,,,0.00,VWS V14.01,2013-04-02 23:12:00,
2013-04-02 19:17:00,42.6,10.1,29.95,WNW,288,13.0,22.0,26,0.00,,,0.00,VWS V14.01,2013-04-02 23:17:00,
2013-04-02 19:18:00,42.6,10.1,29.96,WSW,250,3.0,22.0,26,0.00,,,0.00,VWS V14.01,2013-04-02 23:18:00,
2013-04-02 19:19:00,42.6,10.1,29.96,West,267,7.0,22.0,26,0.00,,,0.00,VWS V14.01,2013-04-02 23:19:00,
2013-04-02 19:24:00,42.5,10.1,29.96,West,269,10.0,22.0,26,0.00,,,0.00,VWS V14.01,2013-04-02 23:24:00,
2013-04-02 19:25:00,42.5,10.1,29.96,SW,227,7.0,22.0,26,0.00,,,0.00,VWS V14.01,2013-04-02 23:25:00,
2013-04-02 19:30:00,42.3,9.9,29.96,NW,315,0.0,22.0,26,0.00,,,0.00,VWS V14.01,2013-04-02 23:30:00,
2013-04-02 19:33:00,42.3,10.7,29.96,WNW,284,12.0,22.0,27,0.00,,,0.00,VWS V14.01,2013-04-02 23:33:00,
2013-04-02 19:35:00,42.2,9.8,29.96,West,269,3.0,8.0,26,0.00,,,0.00,VWS V14.01,2013-04-02 23:35:00,
2013-04-02 19:40:00,42.1,9.7,29.96,WNW,290,3.0,15.0,26,0.00,,,0.00,VWS V14.01,2013-04-02 23:40:00,
2013-04-02 19:41:00,42.1,10.6,29.96,West,262,7.0,15.0,27,0.00,,,0.00,VWS V14.01,2013-04-02 23:41:00,
2013-04-02 19:43:00,42.1,9.7,29.96,West,270,12.0,20.0,26,0.00,,,0.00,VWS V14.01,2013-04-02 23:43:00,
2013-04-02 19:48:00,41.9,9.5,29.97,West,281,7.0,20.0,26,0.00,,,0.00,VWS V14.01,2013-04-02 23:48:00,
2013-04-02 19:49:00,41.9,10.4,29.97,West,276,7.0,20.0,27,0.00,,,0.00,VWS V14.01,2013-04-02 23:49:00,
2013-04-02 19:50:00,41.9,9.5,29.97,West,280,9.0,20.0,26,0.00,,,0.00,VWS V14.01,2013-04-02 23:50:00,
2013-04-02 19:54:00,41.9,9.5,29.97,West,273,1.0,20.0,26,0.00,,,0.00,VWS V14.01,2013-04-02 23:54:00,
2013-04-02 19:55:00,41.9,10.4,29.97,West,281,5.0,20.0,27,0.00,,,0.00,VWS V14.01,2013-04-02 23:55:00,
2013-04-02 19:56:00,41.8,10.3,29.97,West,276,10.0,20.0,27,0.00,,,0.00,VWS V14.01,2013-04-02 23:56:00,
2013-04-02 20:02:00,41.6,10.1,29.97,WNW,300,0.0,20.0,27,0.00,,,0.00,VWS V14.01,2013-04-03 00:02:00,
2013-04-02 20:03:00,41.6,10.1,29.97,NW,322,8.0,20.0,27,0.00,,,0.00,VWS V14.01,2013-04-03 00:03:00,
2013-04-02 20:04:00,41.6,10.1,29.97,West,263,9.0,20.0,27,0.00,,,0.00,VWS V14.01,2013-04-03 00:04:00,
2013-04-02 20:09:00,41.6,10.1,29.97,West,275,10.0,15.0,27,0.00,,,0.00,VWS V14.01,2013-04-03 00:09:00,
2013-04-02 20:11:00,41.6,10.1,29.97,WNW,283,11.0,15.0,27,0.00,,,0.00,VWS V14.01,2013-04-03 00:11:00,
2013-04-02 20:12:00,41.6,10.1,29.97,West,269,6.0,15.0,27,0.00,,,0.00,VWS V14.01,2013-04-03 00:12:00,
2013-04-02 20:16:00,41.5,10.0,29.97,NW,313,3.0,15.0,27,0.00,,,0.00,VWS V14.01,2013-04-03 00:16:00,
2013-04-02 20:17:00,41.5,10.0,29.97,WNW,284,3.0,15.0,27,0.00,,,0.00,VWS V14.01,2013-04-03 00:17:00,
2013-04-02 20:18:00,41.5,10.0,29.98,West,280,4.0,15.0,27,0.00,,,0.00,VWS V14.01,2013-04-03 00:18:00,
2013-04-02 20:23:00,41.2,10.6,29.98,WNW,289,4.0,15.0,28,0.00,,,0.00,VWS V14.01,2013-04-03 00:23:00,
2013-04-02 20:24:00,41.2,10.6,29.98,West,277,1.0,15.0,28,0.00,,,0.00,VWS V14.01,2013-04-03 00:24:00,
2013-04-02 20:30:00,41.2,10.6,29.98,West,277,7.0,15.0,28,0.00,,,0.00,VWS V14.01,2013-04-03 00:30:00,
2013-04-02 20:32:00,41.2,10.6,29.98,West,272,6.0,15.0,28,0.00,,,0.00,VWS V14.01,2013-04-03 00:32:00,
2013-04-02 20:34:00,41.1,10.5,29.98,WNW,295,1.0,15.0,28,0.00,,,0.00,VWS V14.01,2013-04-03 00:34:00,
2013-04-02 20:38:00,40.9,9.5,29.98,NW,306,3.0,10.0,27,0.00,,,0.00,VWS V14.01,2013-04-03 00:38:00,
2013-04-02 20:39:00,40.9,9.5,29.98,West,280,1.0,10.0,27,0.00,,,0.00,VWS V14.01,2013-04-03 00:39:00,
2013-04-02 20:40:00,40.9,9.5,29.98,West,268,5.0,12.0,27,0.00,,,0.00,VWS V14.01,2013-04-03 00:40:00,
2013-04-02 20:47:00,40.8,9.4,29.98,WSW,243,2.0,12.0,27,0.00,,,0.00,VWS V14.01,2013-04-03 00:47:00,
2013-04-02 20:48:00,40.8,9.4,29.99,WNW,292,3.0,12.0,27,0.00,,,0.00,VWS V14.01,2013-04-03 00:48:00,
2013-04-02 20:50:00,40.8,10.2,29.99,West,277,2.0,12.0,28,0.00,,,0.00,VWS V14.01,2013-04-03 00:50:00,
2013-04-02 20:53:00,40.6,10.1,29.99,West,269,1.0,12.0,28,0.00,,,0.00,VWS V14.01,2013-04-03 00:53:00,
2013-04-02 20:55:00,40.6,10.1,29.99,West,279,0.0,12.0,28,0.00,,,0.00,VWS V14.01,2013-04-03 00:55:00,
2013-04-02 20:56:00,40.6,10.1,29.99,West,279,1.0,12.0,28,0.00,,,0.00,VWS V14.01,2013-04-03 00:56:00,
2013-04-02 20:59:00,40.6,10.1,29.99,West,265,8.0,12.0,28,0.00,,,0.00,VWS V14.01,2013-04-03 00:59:00,
2013-04-02 21:04:00,40.5,10.0,30.00,West,267,2.0,12.0,28,0.00,,,0.00,VWS V14.01,2013-04-03 01:04:00,
2013-04-02 21:05:00,40.5,10.0,30.00,West,261,2.0,6.0,28,0.00,,,0.00,VWS V14.01,2013-04-03 01:05:00,
2013-04-02 21:08:00,40.3,9.8,30.00,West,275,6.0,9.0,28,0.00,,,0.00,VWS V14.01,2013-04-03 01:08:00,
2013-04-02 21:10:00,40.3,9.8,30.00,WSW,258,1.0,9.0,28,0.00,,,0.00,VWS V14.01,2013-04-03 01:10:00,
2013-04-02 21:11:00,40.3,9.8,30.00,WNW,291,3.0,9.0,28,0.00,,,0.00,VWS V14.01,2013-04-03 01:11:00,
2013-04-02 21:13:00,40.3,10.6,30.00,West,260,3.0,11.0,29,0.00,,,0.00,VWS V14.01,2013-04-03 01:13:00,
2013-04-02 21:17:00,40.3,10.6,30.00,WSW,250,7.0,11.0,29,0.00,,,0.00,VWS V14.01,2013-04-03 01:17:00,
2013-04-02 21:18:00,40.2,10.5,30.01,West,265,7.0,11.0,29,0.00,,,0.00,VWS V14.01,2013-04-03 01:18:00,
2013-04-02 21:23:00,40.2,11.3,30.01,WSW,243,5.0,11.0,30,0.00,,,0.00,VWS V14.01,2013-04-03 01:23:00,
2013-04-02 21:24:00,40.2,11.3,30.01,WSW,243,2.0,11.0,30,0.00,,,0.00,VWS V14.01,2013-04-03 01:24:00,
2013-04-02 21:29:00,39.9,11.7,30.01,WSW,254,3.0,11.0,31,0.00,,,0.00,VWS V14.01,2013-04-03 01:29:00,
2013-04-02 21:31:00,39.9,11.7,30.01,WSW,254,0.0,11.0,31,0.00,,,0.00,VWS V14.01,2013-04-03 01:31:00,
2013-04-02 21:34:00,39.8,11.6,30.01,WSW,257,4.0,4.0,31,0.00,,,0.00,VWS V14.01,2013-04-03 01:34:00,
2013-04-02 21:37:00,39.6,11.5,30.01,West,261,1.0,6.0,31,0.00,,,0.00,VWS V14.01,2013-04-03 01:37:00,
2013-04-02 21:40:00,39.5,12.1,30.01,West,280,2.0,9.0,32,0.00,,,0.00,VWS V14.01,2013-04-03 01:40:00,
2013-04-02 21:42:00,39.5,12.1,30.01,West,281,0.0,9.0,32,0.00,,,0.00,VWS V14.01,2013-04-03 01:42:00,
2013-04-02 21:43:00,39.5,11.4,30.01,West,260,5.0,9.0,31,0.00,,,0.00,VWS V14.01,2013-04-03 01:43:00,
2013-04-02 21:47:00,39.3,11.9,30.01,West,267,4.0,9.0,32,0.00,,,0.00,VWS V14.01,2013-04-03 01:47:00,
2013-04-02 21:49:00,39.3,11.2,30.01,WNW,282,0.0,9.0,31,0.00,,,0.00,VWS V14.01,2013-04-03 01:49:00,
2013-04-02 21:52:00,39.3,11.2,30.01,West,277,0.0,9.0,31,0.00,,,0.00,VWS V14.01,2013-04-03 01:52:00,
2013-04-02 21:55:00,39.2,11.1,30.01,West,267,5.0,10.0,31,0.00,,,0.00,VWS V14.01,2013-04-03 01:55:00,
2013-04-02 21:57:00,39.2,11.1,30.01,WNW,284,7.0,10.0,31,0.00,,,0.00,VWS V14.01,2013-04-03 01:57:00,
2013-04-02 22:00:00,39.2,11.1,30.01,West,277,3.0,10.0,31,0.00,,,0.00,VWS V14.01,2013-04-03 02:00:00,
2013-04-02 22:01:00,39.2,11.1,30.01,West,270,2.0,10.0,31,0.00,,,0.00,VWS V14.01,2013-04-03 02:01:00,
2013-04-02 22:03:00,39.2,11.1,30.02,West,266,0.0,10.0,31,0.00,,,0.00,VWS V14.01,2013-04-03 02:03:00,
2013-04-02 22:08:00,39.1,11.0,30.02,West,266,1.0,8.0,31,0.00,,,0.00,VWS V14.01,2013-04-03 02:08:00,
2013-04-02 22:09:00,39.1,11.0,30.02,WNW,282,6.0,9.0,31,0.00,,,0.00,VWS V14.01,2013-04-03 02:09:00,
2013-04-02 22:10:00,39.1,11.0,30.02,West,274,11.0,11.0,31,0.00,,,0.00,VWS V14.01,2013-04-03 02:10:00,
2013-04-02 22:13:00,39.1,11.0,30.02,West,277,1.0,12.0,31,0.00,,,0.00,VWS V14.01,2013-04-03 02:13:00,
2013-04-02 22:19:00,39.1,11.0,30.02,West,269,5.0,12.0,31,0.00,,,0.00,VWS V14.01,2013-04-03 02:19:00,
2013-04-02 22:21:00,39.1,11.0,30.02,West,272,5.0,12.0,31,0.00,,,0.00,VWS V14.01,2013-04-03 02:21:00,
2013-04-02 22:22:00,38.9,10.9,30.02,West,271,3.0,12.0,31,0.00,,,0.00,VWS V14.01,2013-04-03 02:22:00,
2013-04-02 22:27:00,38.8,11.5,30.02,West,276,0.0,12.0,32,0.00,,,0.00,VWS V14.01,2013-04-03 02:27:00,
2013-04-02 22:30:00,38.8,10.8,30.02,WNW,292,9.0,12.0,31,0.00,,,0.00,VWS V14.01,2013-04-03 02:30:00,
2013-04-02 22:32:00,38.8,10.8,30.02,WNW,286,8.0,12.0,31,0.00,,,0.00,VWS V14.01,2013-04-03 02:32:00,
2013-04-02 22:35:00,38.8,11.5,30.02,West,275,4.0,5.0,32,0.00,,,0.00,VWS V14.01,2013-04-03 02:35:00,
2013-04-02 22:37:00,38.8,11.5,30.02,West,273,4.0,8.0,32,0.00,,,0.00,VWS V14.01,2013-04-03 02:37:00,
2013-04-02 22:40:00,38.8,11.5,30.02,WNW,290,4.0,9.0,32,0.00,,,0.00,VWS V14.01,2013-04-03 02:40:00,
2013-04-02 22:41:00,38.8,11.5,30.02,West,279,4.0,9.0,32,0.00,,,0.00,VWS V14.01,2013-04-03 02:41:00,
2013-04-02 22:43:00,38.8,11.5,30.02,West,278,4.0,12.0,32,0.00,,,0.00,VWS V14.01,2013-04-03 02:43:00,
2013-04-02 22:46:00,38.8,11.5,30.02,West,275,5.0,12.0,32,0.00,,,0.00,VWS V14.01,2013-04-03 02:46:00,
2013-04-02 22:48:00,38.8,11.5,30.02,WSW,252,6.0,12.0,32,0.00,,,0.00,VWS V14.01,2013-04-03 02:48:00,
2013-04-02 22:49:00,38.8,11.5,30.02,WNW,287,0.0,12.0,32,0.00,,,0.00,VWS V14.01,2013-04-03 02:49:00,
2013-04-02 22:53:00,38.6,11.3,30.02,West,275,5.0,12.0,32,0.00,,,0.00,VWS V14.01,2013-04-03 02:53:00,
2013-04-02 22:54:00,38.6,11.3,30.02,West,266,7.0,12.0,32,0.00,,,0.00,VWS V14.01,2013-04-03 02:54:00,
2013-04-02 22:55:00,38.6,11.3,30.02,West,267,4.0,12.0,32,0.00,,,0.00,VWS V14.01,2013-04-03 02:55:00,
2013-04-02 22:58:00,38.6,11.3,30.02,West,277,0.0,12.0,32,0.00,,,0.00,VWS V14.01,2013-04-03 02:58:00,
2013-04-02 23:00:00,38.6,11.3,30.02,WNW,285,9.0,12.0,32,0.00,,,0.00,VWS V14.01,2013-04-03 03:00:00,
2013-04-02 23:04:00,38.8,11.5,30.02,West,270,8.0,16.0,32,0.00,,,0.00,VWS V14.01,2013-04-03 03:04:00,
2013-04-02 23:05:00,38.8,11.5,30.02,West,268,8.0,10.0,32,0.00,,,0.00,VWS V14.01,2013-04-03 03:05:00,
2013-04-02 23:06:00,38.8,11.5,30.02,West,273,6.0,10.0,32,0.00,,,0.00,VWS V14.01,2013-04-03 03:06:00,
2013-04-02 23:09:00,38.8,11.5,30.02,West,274,8.0,13.0,32,0.00,,,0.00,VWS V14.01,2013-04-03 03:09:00,
2013-04-02 23:13:00,38.8,11.5,30.02,West,273,1.0,13.0,32,0.00,,,0.00,VWS V14.01,2013-04-03 03:13:00,
2013-04-02 23:15:00,38.8,11.5,30.02,West,265,4.0,13.0,32,0.00,,,0.00,VWS V14.01,2013-04-03 03:15:00,
2013-04-02 23:20:00,38.6,11.3,30.02,West,271,4.0,16.0,32,0.00,,,0.00,VWS V14.01,2013-04-03 03:20:00,
2013-04-02 23:22:00,38.6,11.3,30.02,West,269,5.0,16.0,32,0.00,,,0.00,VWS V14.01,2013-04-03 03:22:00,
2013-04-02 23:24:00,38.5,11.2,30.02,West,263,4.0,16.0,32,0.00,,,0.00,VWS V14.01,2013-04-03 03:24:00,
2013-04-02 23:25:00,38.5,11.2,30.02,West,277,6.0,16.0,32,0.00,,,0.00,VWS V14.01,2013-04-03 03:25:00,
2013-04-02 23:28:00,38.5,11.9,30.02,West,277,2.0,16.0,33,0.00,,,0.00,VWS V14.01,2013-04-03 03:28:00,
2013-04-02 23:31:00,38.5,11.9,30.02,West,263,6.0,16.0,33,0.00,,,0.00,VWS V14.01,2013-04-03 03:31:00,
2013-04-02 23:33:00,38.3,11.7,30.02,WNW,296,6.0,16.0,33,0.00,,,0.00,VWS V14.01,2013-04-03 03:33:00,
2013-04-02 23:34:00,38.3,11.7,30.02,WSW,238,3.0,16.0,33,0.00,,,0.00,VWS V14.01,2013-04-03 03:34:00,
2013-04-02 23:37:00,38.3,11.7,30.02,NW,318,8.0,12.0,33,0.00,,,0.00,VWS V14.01,2013-04-03 03:37:00,
2013-04-02 23:38:00,38.3,11.7,30.02,West,277,10.0,12.0,33,0.00,,,0.00,VWS V14.01,2013-04-03 03:38:00,
2013-04-02 23:42:00,38.5,11.9,30.02,West,270,9.0,15.0,33,0.00,,,0.00,VWS V14.01,2013-04-03 03:42:00,
2013-04-02 23:43:00,38.5,11.9,30.02,West,278,5.0,15.0,33,0.00,,,0.00,VWS V14.01,2013-04-03 03:43:00,
2013-04-02 23:47:00,38.5,11.9,30.02,WNW,292,8.0,16.0,33,0.00,,,0.00,VWS V14.01,2013-04-03 03:47:00,
2013-04-02 23:50:00,38.5,11.9,30.02,West,281,6.0,16.0,33,0.00,,,0.00,VWS V14.01,2013-04-03 03:50:00,
2013-04-02 23:51:00,38.5,11.9,30.02,West,265,4.0,16.0,33,0.00,,,0.00,VWS V14.01,2013-04-03 03:51:00,
2013-04-02 23:54:00,38.5,12.6,30.02,West,277,8.0,16.0,34,0.00,,,0.00,VWS V14.01,2013-04-03 03:54:00,
2013-04-02 23:59:00,38.3,12.4,30.02,West,271,10.0,16.0,34,0.00,,,0.00,VWS V14.01,2013-04-03 03:59:00,